GFSNGP_prec_precacc_015.txt.gz
Total_Precipitation_Accumulation
0.00 0.00 0.00 0.00 0.00 0.00 0.00 0.00 0.00 0.00 0.00 0.00 0.00 0.00 0.00 0.00 0.00 0.00 0.00 0.00 0.00 0.00 0.00 0.00 0.00 0.00 0.00 0.00 0.00 0.00 0.00 0.00 0.00 0.00 0.00 0.00 0.00 0.00 0.00 0.00 0.00 0.00 0.00 0.00
0.00 0.00 0.00 0.00 0.00 0.00 0.00 0.00 0.00 0.00 0.00 0.00 0.00 0.00 0.00 0.00 0.00 0.00 0.00 0.00 0.00 0.00 0.00 0.00 0.00 0.00 0.00 0.00 0.00 0.00 0.00 0.00 0.02 0.05 0.10 0.13 0.11 0.06 0.01 0.00 0.00 0.00 0.00 0.00
0.01 0.00 0.01 0.01 0.00 0.00 0.00 0.00 0.00 0.00 0.00 0.00 0.00 0.00 0.00 0.00 0.00 0.00 0.00 0.00 0.01 0.00 0.00 0.00 0.00 0.00 0.00 0.00 0.00 0.01 0.01 0.03 0.06 0.10 0.12 0.06 0.01 0.00 0.00 0.00 0.00 0.00 0.00 0.00
0.01 0.02 0.07 0.00 0.00 0.00 0.00 0.00 0.00 0.00 0.00 0.00 0.00 0.00 0.00 0.00 0.00 0.02 0.01 0.03 0.02 0.00 0.00 0.00 0.00 0.00 0.00 0.00 0.02 0.02 0.01 0.02 0.01 0.00 0.00 0.00 0.00 0.00 0.00 0.00 0.00 0.00 0.00 0.00
0.02 0.03 0.01 0.00 0.00 0.00 0.00 0.00 0.00 0.00 0.02 0.02 0.02 0.02 0.00 0.01 0.03 0.05 0.04 0.04 0.00 0.00 0.00 0.00 0.00 0.01 0.03 0.03 0.03 0.03 0.01 0.00 0.00 0.00 0.00 0.00 0.00 0.00 0.00 0.00 0.00 0.00 0.00 0.00
0.02 0.03 0.03 0.00 0.00 0.00 0.00 0.00 0.01 0.04 0.09 0.14 0.10 0.16 0.10 0.05 0.04 0.03 0.02 0.00 0.00 0.00 0.00 0.00 0.01 0.01 0.01 0.00 0.00 0.00 0.00 0.00 0.00 0.00 0.00 0.00 0.00 0.00 0.00 0.00 0.00 0.00 0.00 0.00
0.00 0.02 0.01 0.00 0.00 0.01 0.11 0.13 0.06 0.12 0.16 0.09 0.12 0.14 0.12 0.09 0.02 0.00 0.00 0.00 0.00 0.00 0.00 0.00 0.00 0.01 0.01 0.00 0.00 0.00 0.00 0.00 0.00 0.00 0.00 0.00 0.00 0.00 0.00 0.00 0.00 0.00 0.01 0.00
0.05 0.13 0.05 0.00 0.02 0.12 0.16 0.07 0.07 0.05 0.05 0.06 0.05 0.08 0.08 0.03 0.02 0.00 0.00 0.00 0.00 0.00 0.00 0.00 0.01 0.00 0.00 0.00 0.00 0.00 0.00 0.00 0.00 0.00 0.00 0.00 0.00 0.00 0.00 0.00 0.00 0.00 0.01 0.01
0.02 0.02 0.00 0.00 0.02 0.01 0.03 0.08 0.06 0.06 0.03 0.06 0.10 0.09 0.04 0.03 0.00 0.00 0.00 0.00 0.00 0.00 0.01 0.01 0.00 0.00 0.00 0.00 0.00 0.00 0.00 0.00 0.00 0.00 0.00 0.00 0.00 0.00 0.00 0.00 0.00 0.01 0.02 0.01
0.01 0.01 0.00 0.01 0.01 0.02 0.06 0.07 0.06 0.07 0.08 0.08 0.08 0.06 0.03 0.00 0.00 0.00 0.00 0.01 0.01 0.02 0.02 0.00 0.00 0.00 0.00 0.00 0.00 0.00 0.00 0.00 0.00 0.00 0.00 0.00 0.00 0.00 0.00 0.00 0.01 0.01 0.01 0.03
0.03 0.01 0.02 0.03 0.06 0.08 0.08 0.13 0.12 0.08 0.07 0.05 0.03 0.01 0.01 0.01 0.00 0.00 0.01 0.01 0.02 0.04 0.04 0.00 0.00 0.00 0.00 0.00 0.00 0.00 0.00 0.00 0.00 0.00 0.00 0.00 0.00 0.00 0.00 0.00 0.01 0.03 0.04 0.11
0.08 0.04 0.17 0.08 0.10 0.09 0.11 0.15 0.10 0.07 0.03 0.01 0.00 0.00 0.00 0.00 0.00 0.00 0.02 0.03 0.03 0.02 0.00 0.00 0.00 0.00 0.00 0.00 0.00 0.00 0.00 0.00 0.00 0.00 0.00 0.00 0.00 0.00 0.00 0.00 0.00 0.01 0.04 0.11
0.14 0.09 0.12 0.08 0.05 0.06 0.08 0.07 0.03 0.01 0.00 0.00 0.00 0.00 0.00 0.00 0.01 0.02 0.03 0.03 0.01 0.00 0.00 0.00 0.00 0.00 0.00 0.00 0.00 0.00 0.00 0.00 0.00 0.00 0.00 0.00 0.00 0.00 0.01 0.00 0.00 0.00 0.03 0.03
0.05 0.07 0.10 0.08 0.11 0.06 0.03 0.00 0.00 0.00 0.00 0.00 0.00 0.00 0.00 0.01 0.03 0.03 0.02 0.00 0.00 0.00 0.00 0.00 0.00 0.00 0.00 0.00 0.00 0.00 0.00 0.00 0.00 0.00 0.00 0.00 0.00 0.01 0.01 0.01 0.01 0.01 0.01 0.02
0.01 0.01 0.06 0.02 0.01 0.01 0.00 0.00 0.00 0.00 0.00 0.00 0.00 0.00 0.01 0.02 0.02 0.00 0.00 0.00 0.00 0.00 0.00 0.00 0.00 0.00 0.00 0.00 0.00 0.00 0.00 0.00 0.00 0.00 0.00 0.00 0.01 0.00 0.01 0.01 0.01 0.02 0.01 0.01
0.00 0.00 0.00 0.00 0.00 0.01 0.00 0.00 0.00 0.00 0.00 0.00 0.00 0.01 0.01 0.01 0.00 0.00 0.00 0.00 0.00 0.00 0.00 0.00 0.00 0.00 0.00 0.00 0.00 0.00 0.00 0.00 0.00 0.00 0.00 0.00 0.00 0.00 0.01 0.01 0.02 0.03 0.04 0.05
0.00 0.01 0.03 0.04 0.02 0.00 0.00 0.00 0.00 0.00 0.00 0.00 0.00 0.00 0.00 0.00 0.00 0.00 0.00 0.00 0.00 0.00 0.00 0.00 0.00 0.00 0.00 0.00 0.00 0.00 0.00 0.00 0.00 0.00 0.00 0.01 0.00 0.00 0.01 0.01 0.02 0.04 0.07 0.09
0.01 0.01 0.01 0.00 0.00 0.00 0.00 0.00 0.00 0.00 0.00 0.00 0.00 0.00 0.00 0.01 0.01 0.00 0.00 0.00 0.00 0.00 0.00 0.00 0.00 0.00 0.00 0.00 0.00 0.00 0.00 0.00 0.00 0.00 0.00 0.00 0.00 0.01 0.01 0.02 0.02 0.03 0.06 0.06
0.00 0.00 0.00 0.00 0.00 0.00 0.00 0.00 0.00 0.00 0.00 0.00 0.00 0.00 0.01 0.01 0.01 0.00 0.00 0.00 0.00 0.00 0.00 0.00 0.00 0.00 0.00 0.00 0.00 0.00 0.01 0.01 0.01 0.00 0.00 0.00 0.01 0.01 0.01 0.02 0.02 0.03 0.05 0.05
0.00 0.00 0.00 0.00 0.00 0.00 0.00 0.00 0.00 0.00 0.00 0.00 0.00 0.01 0.02 0.01 0.01 0.00 0.00 0.00 0.00 0.00 0.00 0.00 0.00 0.00 0.01 0.01 0.00 0.01 0.01 0.02 0.01 0.01 0.01 0.01 0.01 0.01 0.01 0.01 0.02 0.03 0.03 0.06
0.00 0.00 0.00 0.00 0.00 0.00 0.00 0.00 0.00 0.00 0.00 0.00 0.02 0.02 0.02 0.02 0.01 0.00 0.00 0.00 0.00 0.00 0.00 0.01 0.01 0.01 0.02 0.03 0.02 0.02 0.02 0.02 0.01 0.01 0.01 0.01 0.01 0.01 0.01 0.01 0.02 0.02 0.03 0.04
0.00 0.00 0.00 0.00 0.00 0.00 0.00 0.00 0.00 0.00 0.00 0.00 0.02 0.03 0.04 0.03 0.01 0.00 0.00 0.00 0.00 0.01 0.01 0.01 0.02 0.03 0.03 0.03 0.02 0.02 0.02 0.02 0.01 0.01 0.01 0.01 0.01 0.01 0.01 0.01 0.02 0.01 0.02 0.03
0.00 0.00 0.00 0.00 0.00 0.01 0.01 0.01 0.02 0.01 0.01 0.02 0.04 0.05 0.05 0.02 0.01 0.00 0.00 0.00 0.00 0.01 0.01 0.01 0.03 0.03 0.02 0.02 0.03 0.02 0.02 0.02 0.01 0.01 0.01 0.01 0.01 0.01 0.01 0.01 0.01 0.01 0.01 0.01
0.00 0.00 0.01 0.01 0.03 0.04 0.04 0.02 0.01 0.01 0.02 0.04 0.06 0.06 0.03 0.01 0.00 0.00 0.00 0.01 0.01 0.01 0.01 0.01 0.01 0.01 0.02 0.02 0.02 0.03 0.03 0.03 0.02 0.02 0.02 0.02 0.01 0.01 0.01 0.00 0.01 0.01 0.01 0.00
0.00 0.02 0.03 0.03 0.05 0.04 0.02 0.01 0.02 0.02 0.05 0.07 0.07 0.03 0.01 0.00 0.00 0.00 0.00 0.00 0.01 0.01 0.01 0.01 0.01 0.01 0.01 0.01 0.02 0.03 0.03 0.02 0.02 0.03 0.02 0.02 0.02 0.01 0.01 0.00 0.00 0.00 0.00 0.00
0.02 0.04 0.03 0.02 0.02 0.02 0.02 0.03 0.05 0.05 0.08 0.08 0.04 0.01 0.01 0.00 0.00 0.00 0.00 0.01 0.01 0.01 0.01 0.01 0.01 0.01 0.01 0.02 0.03 0.03 0.03 0.02 0.01 0.01 0.02 0.02 0.01 0.01 0.00 0.00 0.00 0.00 0.00 0.00
0.03 0.05 0.05 0.03 0.01 0.02 0.04 0.08 0.09 0.06 0.06 0.05 0.02 0.01 0.01 0.01 0.01 0.01 0.01 0.01 0.00 0.01 0.01 0.01 0.01 0.01 0.02 0.02 0.03 0.03 0.03 0.02 0.02 0.02 0.02 0.01 0.01 0.01 0.01 0.00 0.00 0.00 0.00 0.00

GFSNGP_prec_precacc_018.txt.gz
Total_Precipitation_Accumulation
0.00 0.00 0.00 0.00 0.00 0.00 0.00 0.00 0.00 0.00 0.00 0.00 0.00 0.00 0.00 0.00 0.00 0.00 0.00 0.00 0.00 0.00 0.00 0.00 0.00 0.00 0.00 0.00 0.00 0.00 0.00 0.00 0.00 0.00 0.00 0.01 0.01 0.02 0.03 0.02 0.01 0.00 0.00 0.00
0.00 0.00 0.00 0.00 0.00 0.00 0.00 0.00 0.00 0.00 0.00 0.00 0.00 0.00 0.00 0.00 0.00 0.00 0.00 0.00 0.00 0.00 0.00 0.00 0.00 0.00 0.00 0.00 0.00 0.00 0.00 0.00 0.02 0.06 0.12 0.16 0.14 0.09 0.03 0.01 0.01 0.00 0.00 0.00
0.01 0.00 0.01 0.01 0.00 0.00 0.00 0.00 0.00 0.00 0.00 0.00 0.00 0.00 0.00 0.00 0.00 0.00 0.00 0.00 0.01 0.00 0.00 0.00 0.00 0.00 0.00 0.00 0.00 0.01 0.01 0.03 0.06 0.10 0.12 0.06 0.01 0.00 0.00 0.00 0.00 0.00 0.00 0.00
0.01 0.02 0.07 0.00 0.00 0.00 0.00 0.00 0.00 0.00 0.00 0.00 0.00 0.00 0.00 0.00 0.00 0.02 0.01 0.03 0.02 0.00 0.00 0.00 0.00 0.00 0.00 0.00 0.02 0.02 0.01 0.02 0.02 0.00 0.00 0.00 0.00 0.00 0.00 0.00 0.00 0.00 0.00 0.00
0.02 0.03 0.02 0.00 0.00 0.00 0.00 0.00 0.00 0.00 0.02 0.02 0.02 0.02 0.00 0.01 0.03 0.05 0.04 0.04 0.00 0.00 0.00 0.00 0.00 0.01 0.03 0.03 0.03 0.03 0.01 0.00 0.00 0.00 0.00 0.00 0.00 0.00 0.00 0.00 0.00 0.00 0.00 0.00
0.02 0.03 0.03 0.00 0.00 0.00 0.00 0.00 0.01 0.04 0.09 0.14 0.10 0.16 0.10 0.06 0.04 0.03 0.02 0.00 0.00 0.00 0.00 0.00 0.01 0.01 0.01 0.00 0.00 0.00 0.00 0.00 0.00 0.00 0.00 0.00 0.00 0.00 0.00 0.00 0.00 0.00 0.00 0.00
0.00 0.02 0.01 0.00 0.00 0.01 0.11 0.13 0.06 0.12 0.16 0.09 0.12 0.14 0.13 0.09 0.02 0.00 0.00 0.00 0.00 0.00 0.00 0.00 0.00 0.01 0.01 0.00 0.00 0.00 0.00 0.00 0.00 0.00 0.00 0.00 0.00 0.00 0.00 0.00 0.00 0.00 0.01 0.00
0.05 0.14 0.05 0.00 0.02 0.12 0.16 0.07 0.07 0.05 0.05 0.06 0.07 0.10 0.08 0.03 0.02 0.00 0.00 0.00 0.00 0.00 0.00 0.00 0.01 0.00 0.00 0.00 0.00 0.00 0.00 0.00 0.00 0.00 0.00 0.00 0.00 0.00 0.00 0.00 0.00 0.00 0.01 0.01
0.03 0.02 0.00 0.00 0.02 0.01 0.03 0.08 0.06 0.06 0.05 0.11 0.16 0.10 0.04 0.03 0.00 0.00 0.00 0.00 0.00 0.00 0.01 0.01 0.00 0.00 0.00 0.00 0.00 0.00 0.00 0.00 0.00 0.00 0.00 0.00 0.00 0.00 0.00 0.00 0.00 0.01 0.02 0.01
0.02 0.01 0.00 0.01 0.01 0.02 0.06 0.07 0.07 0.14 0.17 0.13 0.09 0.06 0.03 0.00 0.00 0.00 0.00 0.01 0.01 0.02 0.02 0.00 0.00 0.00 0.00 0.00 0.00 0.00 0.00 0.00 0.00 0.00 0.00 0.00 0.00 0.00 0.00 0.00 0.01 0.01 0.01 0.03
0.04 0.01 0.02 0.03 0.06 0.09 0.10 0.18 0.23 0.16 0.11 0.06 0.03 0.01 0.01 0.01 0.00 0.00 0.01 0.01 0.02 0.04 0.04 0.00 0.00 0.00 0.00 0.00 0.00 0.00 0.00 0.00 0.00 0.00 0.00 0.00 0.00 0.00 0.00 0.00 0.01 0.03 0.04 0.11
0.08 0.05 0.19 0.11 0.16 0.20 0.21 0.23 0.15 0.08 0.03 0.01 0.01 0.00 0.00 0.00 0.00 0.00 0.02 0.03 0.03 0.02 0.00 0.00 0.00 0.00 0.00 0.00 0.00 0.00 0.00 0.00 0.00 0.00 0.00 0.00 0.00 0.00 0.00 0.00 0.00 0.01 0.04 0.11
0.15 0.10 0.16 0.14 0.12 0.13 0.18 0.13 0.04 0.01 0.00 0.00 0.00 0.00 0.00 0.00 0.01 0.02 0.03 0.03 0.01 0.00 0.00 0.00 0.00 0.00 0.00 0.00 0.00 0.00 0.00 0.00 0.00 0.00 0.00 0.00 0.00 0.00 0.01 0.00 0.00 0.00 0.03 0.03
0.05 0.08 0.11 0.10 0.16 0.14 0.06 0.01 0.00 0.00 0.00 0.00 0.00 0.00 0.00 0.01 0.03 0.03 0.02 0.00 0.00 0.00 0.00 0.00 0.00 0.00 0.00 0.00 0.00 0.00 0.00 0.00 0.00 0.00 0.00 0.00 0.00 0.01 0.01 0.01 0.02 0.01 0.01 0.02
0.01 0.01 0.06 0.03 0.01 0.01 0.00 0.00 0.00 0.00 0.00 0.00 0.00 0.00 0.01 0.02 0.02 0.00 0.00 0.00 0.00 0.00 0.00 0.00 0.00 0.00 0.00 0.00 0.00 0.00 0.00 0.00 0.00 0.00 0.00 0.00 0.01 0.00 0.01 0.01 0.01 0.02 0.01 0.01
0.00 0.00 0.00 0.00 0.00 0.01 0.00 0.00 0.00 0.00 0.00 0.00 0.00 0.01 0.01 0.01 0.00 0.00 0.00 0.00 0.00 0.00 0.00 0.00 0.00 0.00 0.00 0.00 0.00 0.00 0.00 0.00 0.00 0.00 0.00 0.00 0.00 0.00 0.01 0.01 0.02 0.03 0.04 0.05
0.00 0.01 0.03 0.04 0.02 0.00 0.00 0.00 0.00 0.00 0.00 0.00 0.00 0.00 0.00 0.00 0.00 0.00 0.00 0.00 0.00 0.00 0.00 0.00 0.00 0.00 0.00 0.00 0.00 0.00 0.00 0.00 0.00 0.00 0.01 0.01 0.00 0.00 0.01 0.02 0.02 0.04 0.07 0.09
0.01 0.01 0.01 0.00 0.00 0.00 0.00 0.00 0.00 0.00 0.00 0.00 0.00 0.00 0.00 0.01 0.01 0.01 0.00 0.00 0.00 0.00 0.00 0.00 0.00 0.00 0.00 0.00 0.00 0.00 0.00 0.00 0.01 0.01 0.01 0.01 0.00 0.01 0.01 0.02 0.02 0.04 0.06 0.06
0.00 0.00 0.00 0.00 0.00 0.00 0.00 0.00 0.00 0.00 0.00 0.00 0.00 0.00 0.01 0.01 0.01 0.01 0.01 0.01 0.01 0.00 0.00 0.00 0.00 0.00 0.00 0.00 0.01 0.01 0.01 0.02 0.01 0.00 0.01 0.01 0.01 0.01 0.01 0.02 0.02 0.04 0.05 0.05
0.00 0.00 0.00 0.00 0.00 0.00 0.00 0.00 0.00 0.00 0.00 0.00 0.00 0.01 0.02 0.01 0.01 0.02 0.03 0.02 0.01 0.00 0.00 0.00 0.00 0.00 0.01 0.01 0.01 0.01 0.02 0.02 0.01 0.01 0.01 0.01 0.01 0.01 0.01 0.01 0.02 0.03 0.04 0.06
0.00 0.00 0.00 0.00 0.00 0.00 0.00 0.00 0.00 0.00 0.00 0.00 0.02 0.02 0.03 0.02 0.03 0.04 0.03 0.01 0.01 0.00 0.00 0.01 0.01 0.01 0.02 0.03 0.02 0.02 0.02 0.02 0.02 0.01 0.01 0.01 0.01 0.01 0.01 0.01 0.02 0.02 0.03 0.04
0.00 0.00 0.00 0.00 0.00 0.00 0.00 0.00 0.00 0.00 0.00 0.00 0.02 0.03 0.05 0.04 0.05 0.04 0.02 0.01 0.00 0.01 0.01 0.01 0.02 0.03 0.04 0.04 0.02 0.02 0.02 0.02 0.02 0.01 0.02 0.01 0.01 0.01 0.01 0.01 0.02 0.01 0.02 0.03
0.00 0.00 0.00 0.00 0.00 0.01 0.01 0.01 0.02 0.01 0.01 0.02 0.05 0.06 0.06 0.06 0.05 0.02 0.01 0.00 0.00 0.01 0.01 0.01 0.03 0.03 0.03 0.02 0.03 0.02 0.03 0.03 0.02 0.02 0.02 0.02 0.01 0.01 0.01 0.01 0.01 0.01 0.01 0.01
0.00 0.00 0.01 0.01 0.03 0.04 0.04 0.02 0.01 0.01 0.02 0.04 0.06 0.07 0.05 0.03 0.01 0.00 0.00 0.01 0.01 0.01 0.01 0.01 0.01 0.01 0.02 0.02 0.02 0.03 0.03 0.03 0.02 0.02 0.02 0.02 0.02 0.01 0.01 0.01 0.01 0.01 0.01 0.00
0.00 0.02 0.03 0.03 0.05 0.04 0.02 0.01 0.02 0.03 0.05 0.07 0.08 0.04 0.01 0.00 0.00 0.00 0.00 0.00 0.01 0.01 0.01 0.01 0.01 0.01 0.01 0.02 0.02 0.03 0.04 0.03 0.03 0.03 0.03 0.03 0.02 0.01 0.01 0.01 0.00 0.00 0.00 0.00
0.02 0.04 0.03 0.02 0.02 0.02 0.02 0.04 0.06 0.06 0.09 0.09 0.05 0.02 0.01 0.01 0.00 0.00 0.00 0.01 0.01 0.01 0.01 0.01 0.01 0.02 0.02 0.02 0.03 0.04 0.04 0.03 0.02 0.02 0.02 0.02 0.02 0.01 0.01 0.00 0.00 0.00 0.00 0.00
0.03 0.05 0.05 0.03 0.01 0.02 0.05 0.09 0.11 0.08 0.07 0.06 0.03 0.01 0.01 0.01 0.01 0.01 0.01 0.01 0.00 0.01 0.01 0.01 0.02 0.02 0.02 0.03 0.03 0.03 0.03 0.03 0.02 0.03 0.03 0.02 0.02 0.01 0.01 0.00 0.00 0.00 0.00 0.00

GFSNGP_prec_precacc_024.txt.gz
Total_Precipitation_Accumulation
0.00 0.00 0.00 0.00 0.00 0.00 0.00 0.00 0.00 0.00 0.00 0.00 0.00 0.00 0.00 0.00 0.00 0.00 0.00 0.00 0.00 0.00 0.00 0.00 0.00 0.00 0.00 0.00 0.00 0.00 0.00 0.00 0.00 0.00 0.01 0.02 0.04 0.03 0.05 0.04 0.03 0.02 0.01 0.00
0.00 0.00 0.00 0.00 0.00 0.00 0.00 0.00 0.00 0.00 0.00 0.00 0.00 0.00 0.00 0.00 0.00 0.00 0.00 0.00 0.00 0.00 0.00 0.00 0.00 0.00 0.00 0.00 0.00 0.00 0.00 0.00 0.03 0.07 0.15 0.20 0.17 0.10 0.03 0.02 0.01 0.00 0.00 0.00
0.01 0.00 0.01 0.01 0.00 0.00 0.00 0.00 0.00 0.00 0.00 0.00 0.00 0.00 0.00 0.00 0.00 0.00 0.00 0.00 0.01 0.00 0.00 0.00 0.00 0.00 0.00 0.00 0.00 0.01 0.01 0.03 0.07 0.11 0.14 0.08 0.01 0.00 0.00 0.00 0.00 0.00 0.00 0.00
0.01 0.02 0.07 0.00 0.00 0.00 0.00 0.00 0.00 0.00 0.00 0.00 0.00 0.00 0.00 0.00 0.00 0.02 0.01 0.03 0.02 0.00 0.00 0.00 0.00 0.00 0.00 0.00 0.02 0.02 0.01 0.02 0.02 0.00 0.00 0.00 0.00 0.00 0.00 0.00 0.00 0.00 0.00 0.00
0.02 0.03 0.02 0.00 0.00 0.00 0.00 0.00 0.00 0.00 0.02 0.02 0.02 0.02 0.00 0.01 0.03 0.06 0.05 0.04 0.00 0.00 0.00 0.00 0.00 0.01 0.03 0.03 0.03 0.03 0.01 0.00 0.00 0.00 0.00 0.00 0.00 0.00 0.00 0.00 0.00 0.00 0.00 0.00
0.02 0.05 0.04 0.00 0.00 0.00 0.00 0.00 0.01 0.04 0.09 0.14 0.11 0.19 0.11 0.06 0.08 0.06 0.03 0.00 0.00 0.00 0.00 0.00 0.01 0.01 0.01 0.01 0.00 0.00 0.00 0.00 0.00 0.00 0.00 0.00 0.00 0.00 0.00 0.00 0.00 0.00 0.00 0.00
0.00 0.03 0.01 0.00 0.00 0.01 0.12 0.15 0.06 0.12 0.17 0.11 0.14 0.16 0.17 0.17 0.05 0.00 0.00 0.00 0.00 0.00 0.00 0.00 0.00 0.01 0.01 0.00 0.00 0.00 0.00 0.00 0.00 0.00 0.00 0.00 0.00 0.00 0.00 0.00 0.00 0.00 0.01 0.01
0.07 0.16 0.05 0.00 0.02 0.13 0.16 0.07 0.08 0.06 0.05 0.07 0.08 0.18 0.18 0.05 0.02 0.00 0.00 0.00 0.00 0.00 0.00 0.00 0.01 0.00 0.00 0.00 0.00 0.00 0.00 0.00 0.00 0.00 0.00 0.00 0.00 0.00 0.00 0.00 0.00 0.01 0.01 0.01
0.04 0.03 0.00 0.00 0.02 0.01 0.03 0.09 0.06 0.07 0.08 0.16 0.26 0.16 0.04 0.03 0.00 0.00 0.00 0.00 0.00 0.00 0.01 0.01 0.00 0.00 0.00 0.00 0.00 0.00 0.00 0.00 0.00 0.00 0.00 0.00 0.00 0.00 0.00 0.00 0.00 0.01 0.02 0.02
0.02 0.01 0.00 0.01 0.01 0.02 0.06 0.08 0.13 0.20 0.24 0.21 0.10 0.06 0.03 0.00 0.00 0.00 0.00 0.01 0.01 0.02 0.02 0.00 0.00 0.00 0.00 0.00 0.00 0.00 0.00 0.00 0.00 0.00 0.00 0.00 0.00 0.00 0.00 0.00 0.01 0.02 0.02 0.04
0.04 0.01 0.02 0.04 0.07 0.12 0.19 0.31 0.29 0.19 0.14 0.07 0.03 0.01 0.01 0.01 0.00 0.00 0.01 0.01 0.02 0.04 0.04 0.00 0.00 0.00 0.00 0.00 0.00 0.00 0.00 0.00 0.00 0.00 0.00 0.00 0.00 0.00 0.00 0.00 0.01 0.03 0.05 0.12
0.09 0.05 0.20 0.14 0.26 0.38 0.37 0.27 0.15 0.09 0.04 0.01 0.01 0.00 0.00 0.00 0.00 0.00 0.02 0.03 0.03 0.02 0.00 0.00 0.00 0.00 0.00 0.00 0.00 0.00 0.00 0.00 0.00 0.00 0.00 0.00 0.00 0.00 0.00 0.00 0.00 0.01 0.04 0.12
0.16 0.12 0.19 0.30 0.32 0.22 0.20 0.13 0.04 0.01 0.00 0.00 0.00 0.00 0.00 0.00 0.01 0.02 0.03 0.03 0.01 0.00 0.00 0.00 0.00 0.00 0.00 0.00 0.00 0.00 0.00 0.00 0.00 0.00 0.00 0.00 0.00 0.00 0.01 0.00 0.00 0.00 0.03 0.03
0.05 0.10 0.19 0.19 0.19 0.14 0.06 0.01 0.00 0.00 0.00 0.00 0.00 0.00 0.00 0.01 0.03 0.03 0.02 0.00 0.00 0.00 0.00 0.00 0.00 0.00 0.00 0.00 0.00 0.00 0.00 0.00 0.00 0.00 0.00 0.00 0.01 0.01 0.01 0.02 0.02 0.01 0.01 0.02
0.01 0.02 0.08 0.04 0.01 0.01 0.00 0.00 0.00 0.00 0.00 0.00 0.00 0.00 0.01 0.02 0.02 0.00 0.00 0.00 0.00 0.00 0.00 0.00 0.00 0.01 0.01 0.00 0.00 0.00 0.00 0.00 0.00 0.00 0.00 0.01 0.01 0.01 0.01 0.01 0.01 0.02 0.01 0.01
0.00 0.00 0.00 0.00 0.00 0.01 0.00 0.00 0.00 0.00 0.00 0.00 0.00 0.01 0.01 0.01 0.00 0.00 0.00 0.00 0.00 0.00 0.00 0.01 0.02 0.03 0.01 0.00 0.00 0.00 0.00 0.00 0.00 0.00 0.01 0.01 0.01 0.01 0.01 0.01 0.02 0.03 0.05 0.06
0.00 0.01 0.03 0.04 0.02 0.00 0.00 0.00 0.00 0.00 0.00 0.00 0.00 0.00 0.00 0.00 0.00 0.00 0.00 0.00 0.00 0.00 0.01 0.03 0.04 0.02 0.00 0.00 0.00 0.00 0.00 0.00 0.00 0.01 0.01 0.01 0.01 0.01 0.01 0.02 0.03 0.04 0.07 0.09
0.01 0.01 0.01 0.00 0.00 0.00 0.00 0.00 0.00 0.00 0.00 0.00 0.00 0.00 0.00 0.01 0.01 0.01 0.00 0.01 0.01 0.02 0.03 0.04 0.03 0.01 0.00 0.00 0.01 0.01 0.01 0.01 0.02 0.02 0.01 0.01 0.01 0.01 0.02 0.03 0.03 0.04 0.06 0.06
0.00 0.00 0.00 0.00 0.00 0.00 0.00 0.00 0.00 0.00 0.00 0.00 0.00 0.00 0.01 0.01 0.01 0.01 0.02 0.04 0.05 0.05 0.03 0.02 0.01 0.00 0.00 0.00 0.01 0.01 0.02 0.02 0.02 0.01 0.01 0.01 0.01 0.01 0.02 0.03 0.03 0.04 0.06 0.06
0.00 0.00 0.00 0.00 0.00 0.00 0.00 0.00 0.00 0.00 0.00 0.00 0.00 0.01 0.02 0.01 0.01 0.03 0.07 0.06 0.06 0.04 0.01 0.00 0.00 0.00 0.01 0.01 0.01 0.01 0.02 0.03 0.02 0.02 0.01 0.02 0.02 0.02 0.02 0.02 0.02 0.03 0.04 0.06
0.00 0.00 0.00 0.00 0.00 0.00 0.00 0.00 0.00 0.00 0.00 0.00 0.02 0.02 0.03 0.02 0.03 0.07 0.09 0.05 0.03 0.01 0.00 0.01 0.01 0.01 0.02 0.03 0.02 0.02 0.03 0.03 0.03 0.03 0.03 0.03 0.02 0.02 0.02 0.02 0.02 0.03 0.03 0.05
0.00 0.00 0.00 0.00 0.00 0.00 0.00 0.00 0.00 0.00 0.00 0.00 0.02 0.03 0.06 0.05 0.07 0.07 0.04 0.02 0.01 0.01 0.01 0.01 0.02 0.03 0.04 0.04 0.03 0.03 0.03 0.03 0.03 0.03 0.03 0.03 0.02 0.02 0.02 0.02 0.02 0.02 0.02 0.03
0.00 0.00 0.00 0.00 0.00 0.01 0.01 0.01 0.02 0.01 0.01 0.02 0.05 0.06 0.07 0.07 0.07 0.03 0.01 0.00 0.00 0.01 0.01 0.02 0.03 0.03 0.03 0.04 0.04 0.04 0.04 0.04 0.03 0.03 0.03 0.03 0.03 0.02 0.02 0.02 0.02 0.02 0.01 0.01
0.00 0.00 0.01 0.01 0.03 0.04 0.04 0.02 0.01 0.01 0.02 0.04 0.06 0.07 0.07 0.04 0.01 0.00 0.00 0.01 0.01 0.01 0.01 0.02 0.01 0.01 0.03 0.03 0.04 0.04 0.04 0.04 0.04 0.04 0.03 0.03 0.03 0.02 0.02 0.02 0.01 0.01 0.01 0.01
0.00 0.02 0.03 0.03 0.05 0.04 0.02 0.01 0.02 0.03 0.05 0.07 0.08 0.04 0.02 0.01 0.01 0.00 0.00 0.00 0.01 0.01 0.01 0.01 0.01 0.01 0.02 0.03 0.04 0.04 0.05 0.04 0.04 0.05 0.04 0.04 0.03 0.02 0.02 0.01 0.01 0.01 0.01 0.00
0.02 0.04 0.03 0.02 0.02 0.02 0.02 0.04 0.06 0.06 0.09 0.10 0.06 0.02 0.01 0.01 0.00 0.01 0.00 0.01 0.01 0.01 0.01 0.01 0.02 0.03 0.03 0.03 0.04 0.04 0.04 0.04 0.03 0.03 0.03 0.03 0.03 0.02 0.02 0.01 0.01 0.01 0.00 0.00
0.03 0.05 0.05 0.03 0.01 0.02 0.05 0.09 0.12 0.09 0.08 0.09 0.06 0.02 0.02 0.02 0.02 0.03 0.03 0.02 0.01 0.01 0.02 0.02 0.02 0.03 0.03 0.04 0.05 0.04 0.04 0.03 0.03 0.03 0.03 0.03 0.03 0.02 0.02 0.02 0.02 0.01 0.00 0.00

GFSNGP_prec_precacc_027.txt.gz
Total_Precipitation_Accumulation
0.00 0.00 0.00 0.00 0.00 0.00 0.00 0.00 0.00 0.00 0.00 0.00 0.00 0.00 0.00 0.00 0.00 0.00 0.00 0.00 0.00 0.00 0.00 0.00 0.00 0.00 0.00 0.00 0.00 0.00 0.00 0.00 0.00 0.01 0.01 0.03 0.05 0.04 0.06 0.06 0.04 0.02 0.01 0.00
0.00 0.00 0.00 0.00 0.00 0.00 0.00 0.00 0.00 0.00 0.00 0.00 0.00 0.00 0.00 0.00 0.00 0.00 0.00 0.00 0.00 0.00 0.00 0.00 0.00 0.00 0.00 0.00 0.00 0.00 0.00 0.00 0.03 0.07 0.15 0.21 0.18 0.10 0.04 0.02 0.01 0.00 0.00 0.00
0.01 0.00 0.01 0.01 0.00 0.00 0.00 0.00 0.00 0.00 0.00 0.00 0.00 0.00 0.00 0.00 0.00 0.00 0.00 0.00 0.01 0.00 0.00 0.00 0.00 0.00 0.00 0.00 0.00 0.01 0.01 0.03 0.07 0.11 0.14 0.08 0.01 0.00 0.00 0.00 0.00 0.00 0.00 0.00
0.01 0.02 0.07 0.00 0.00 0.00 0.00 0.00 0.00 0.00 0.00 0.00 0.00 0.00 0.00 0.00 0.00 0.02 0.02 0.03 0.02 0.00 0.00 0.00 0.00 0.00 0.00 0.00 0.02 0.02 0.01 0.02 0.02 0.00 0.00 0.00 0.00 0.00 0.00 0.00 0.00 0.00 0.00 0.00
0.02 0.03 0.02 0.00 0.00 0.00 0.00 0.00 0.00 0.00 0.02 0.02 0.02 0.02 0.01 0.01 0.03 0.06 0.05 0.04 0.00 0.00 0.00 0.00 0.00 0.01 0.03 0.03 0.03 0.03 0.01 0.00 0.00 0.00 0.00 0.00 0.00 0.00 0.00 0.00 0.00 0.00 0.00 0.00
0.02 0.05 0.04 0.00 0.00 0.00 0.00 0.01 0.01 0.04 0.09 0.14 0.11 0.19 0.12 0.07 0.08 0.06 0.03 0.00 0.00 0.00 0.00 0.00 0.01 0.01 0.01 0.01 0.00 0.00 0.00 0.00 0.00 0.00 0.00 0.00 0.00 0.00 0.00 0.00 0.00 0.00 0.00 0.00
0.00 0.04 0.01 0.00 0.00 0.01 0.14 0.16 0.06 0.12 0.17 0.11 0.16 0.19 0.19 0.18 0.05 0.00 0.00 0.00 0.00 0.00 0.00 0.00 0.00 0.01 0.01 0.00 0.00 0.00 0.00 0.00 0.00 0.00 0.00 0.00 0.00 0.00 0.00 0.00 0.00 0.00 0.01 0.01
0.07 0.16 0.06 0.00 0.02 0.14 0.17 0.07 0.08 0.07 0.06 0.08 0.10 0.19 0.18 0.05 0.02 0.00 0.00 0.00 0.00 0.00 0.00 0.00 0.01 0.00 0.00 0.00 0.00 0.00 0.00 0.00 0.00 0.00 0.00 0.00 0.00 0.00 0.00 0.00 0.00 0.01 0.02 0.02
0.04 0.03 0.00 0.00 0.02 0.01 0.04 0.10 0.07 0.07 0.09 0.16 0.26 0.16 0.04 0.03 0.00 0.00 0.00 0.00 0.00 0.00 0.01 0.01 0.00 0.00 0.00 0.00 0.00 0.00 0.00 0.00 0.00 0.00 0.00 0.00 0.00 0.00 0.00 0.00 0.00 0.01 0.03 0.02
0.02 0.01 0.00 0.01 0.01 0.02 0.06 0.08 0.13 0.20 0.24 0.21 0.10 0.06 0.03 0.00 0.00 0.00 0.00 0.01 0.01 0.02 0.02 0.00 0.00 0.00 0.01 0.01 0.01 0.01 0.00 0.00 0.00 0.00 0.00 0.00 0.00 0.00 0.00 0.00 0.01 0.02 0.02 0.04
0.05 0.01 0.02 0.04 0.07 0.13 0.19 0.31 0.29 0.19 0.14 0.07 0.03 0.01 0.01 0.01 0.00 0.00 0.01 0.01 0.02 0.04 0.04 0.00 0.00 0.00 0.01 0.02 0.01 0.00 0.00 0.00 0.00 0.00 0.00 0.00 0.00 0.00 0.00 0.00 0.01 0.03 0.05 0.12
0.10 0.06 0.23 0.20 0.29 0.39 0.37 0.27 0.15 0.09 0.04 0.01 0.01 0.00 0.00 0.00 0.00 0.00 0.02 0.03 0.03 0.02 0.00 0.00 0.00 0.00 0.01 0.01 0.00 0.00 0.01 0.00 0.00 0.00 0.00 0.00 0.00 0.00 0.00 0.00 0.00 0.01 0.04 0.12
0.16 0.13 0.22 0.32 0.34 0.22 0.20 0.13 0.04 0.01 0.00 0.00 0.00 0.00 0.00 0.00 0.01 0.02 0.03 0.03 0.01 0.00 0.00 0.00 0.00 0.01 0.01 0.00 0.00 0.01 0.01 0.00 0.00 0.00 0.00 0.00 0.00 0.01 0.01 0.01 0.00 0.01 0.03 0.03
0.05 0.10 0.20 0.20 0.19 0.14 0.06 0.01 0.00 0.00 0.00 0.00 0.00 0.00 0.00 0.01 0.03 0.03 0.02 0.00 0.00 0.00 0.00 0.00 0.01 0.01 0.01 0.01 0.01 0.00 0.00 0.00 0.00 0.00 0.00 0.00 0.01 0.01 0.02 0.02 0.03 0.01 0.02 0.02
0.01 0.03 0.09 0.04 0.01 0.01 0.00 0.00 0.00 0.00 0.00 0.00 0.00 0.00 0.01 0.02 0.02 0.00 0.00 0.00 0.00 0.00 0.01 0.01 0.01 0.01 0.02 0.00 0.00 0.00 0.00 0.00 0.00 0.00 0.01 0.01 0.01 0.01 0.01 0.02 0.02 0.02 0.02 0.01
0.00 0.00 0.00 0.00 0.00 0.01 0.00 0.00 0.00 0.00 0.00 0.00 0.00 0.01 0.01 0.01 0.00 0.00 0.00 0.00 0.01 0.01 0.01 0.02 0.02 0.03 0.01 0.01 0.00 0.00 0.00 0.00 0.00 0.01 0.01 0.01 0.01 0.01 0.01 0.02 0.02 0.04 0.05 0.06
0.00 0.01 0.03 0.04 0.02 0.00 0.00 0.00 0.00 0.00 0.00 0.00 0.00 0.00 0.00 0.00 0.00 0.00 0.00 0.00 0.01 0.00 0.01 0.03 0.04 0.02 0.00 0.00 0.00 0.00 0.00 0.00 0.00 0.01 0.02 0.02 0.01 0.01 0.01 0.03 0.03 0.05 0.08 0.10
0.01 0.01 0.01 0.00 0.00 0.00 0.00 0.00 0.00 0.00 0.00 0.00 0.00 0.00 0.00 0.01 0.01 0.01 0.00 0.01 0.02 0.02 0.03 0.04 0.03 0.01 0.00 0.00 0.01 0.01 0.01 0.01 0.02 0.02 0.01 0.01 0.01 0.01 0.02 0.04 0.03 0.05 0.07 0.06
0.00 0.00 0.00 0.00 0.00 0.00 0.00 0.00 0.00 0.00 0.00 0.00 0.00 0.00 0.01 0.01 0.01 0.01 0.02 0.05 0.06 0.07 0.04 0.02 0.01 0.00 0.00 0.00 0.01 0.01 0.02 0.03 0.03 0.01 0.02 0.02 0.02 0.02 0.03 0.04 0.04 0.05 0.06 0.06
0.00 0.00 0.00 0.00 0.00 0.00 0.00 0.00 0.00 0.00 0.00 0.00 0.00 0.01 0.02 0.01 0.01 0.03 0.07 0.07 0.07 0.05 0.01 0.00 0.00 0.00 0.01 0.01 0.01 0.01 0.03 0.04 0.03 0.02 0.02 0.02 0.03 0.03 0.03 0.03 0.03 0.04 0.05 0.07
0.00 0.00 0.00 0.00 0.00 0.00 0.00 0.00 0.00 0.00 0.00 0.00 0.02 0.02 0.03 0.02 0.04 0.08 0.10 0.06 0.04 0.01 0.00 0.01 0.01 0.01 0.02 0.03 0.02 0.03 0.04 0.04 0.04 0.04 0.04 0.04 0.04 0.03 0.03 0.03 0.04 0.04 0.04 0.05
0.00 0.00 0.00 0.00 0.00 0.00 0.00 0.00 0.00 0.00 0.00 0.00 0.02 0.03 0.06 0.06 0.08 0.08 0.05 0.02 0.01 0.01 0.01 0.01 0.02 0.03 0.04 0.04 0.03 0.04 0.03 0.04 0.04 0.04 0.04 0.04 0.04 0.03 0.03 0.03 0.04 0.03 0.04 0.04
0.00 0.00 0.00 0.00 0.00 0.01 0.01 0.01 0.02 0.01 0.01 0.02 0.05 0.06 0.07 0.08 0.08 0.03 0.01 0.01 0.00 0.01 0.01 0.02 0.03 0.03 0.03 0.04 0.05 0.05 0.05 0.05 0.05 0.04 0.04 0.05 0.04 0.04 0.03 0.03 0.03 0.03 0.02 0.02
0.00 0.00 0.01 0.01 0.03 0.04 0.04 0.02 0.01 0.01 0.02 0.04 0.06 0.07 0.07 0.05 0.02 0.01 0.00 0.01 0.01 0.01 0.01 0.02 0.01 0.01 0.03 0.04 0.05 0.06 0.05 0.05 0.04 0.04 0.04 0.04 0.04 0.03 0.03 0.03 0.02 0.02 0.02 0.01
0.00 0.02 0.03 0.03 0.05 0.04 0.02 0.01 0.02 0.03 0.05 0.07 0.08 0.05 0.03 0.02 0.02 0.01 0.01 0.01 0.01 0.01 0.01 0.02 0.01 0.01 0.03 0.05 0.05 0.05 0.06 0.05 0.04 0.05 0.04 0.04 0.04 0.04 0.03 0.03 0.02 0.02 0.01 0.01
0.02 0.04 0.03 0.02 0.02 0.02 0.02 0.04 0.06 0.06 0.09 0.11 0.06 0.03 0.02 0.01 0.01 0.01 0.01 0.01 0.01 0.01 0.01 0.02 0.02 0.03 0.04 0.04 0.05 0.05 0.05 0.04 0.04 0.03 0.03 0.03 0.03 0.03 0.02 0.02 0.03 0.02 0.01 0.01
0.03 0.05 0.05 0.03 0.01 0.02 0.05 0.09 0.12 0.09 0.09 0.10 0.07 0.02 0.03 0.02 0.03 0.04 0.04 0.02 0.02 0.02 0.02 0.02 0.03 0.03 0.04 0.05 0.06 0.05 0.05 0.04 0.03 0.04 0.03 0.03 0.03 0.03 0.03 0.02 0.03 0.03 0.02 0.01

GFSNGP_prec_precacc_030.txt.gz
Total_Precipitation_Accumulation
0.00 0.00 0.00 0.00 0.00 0.00 0.00 0.00 0.00 0.00 0.00 0.00 0.00 0.00 0.00 0.00 0.00 0.00 0.00 0.00 0.00 0.00 0.00 0.00 0.00 0.00 0.00 0.00 0.00 0.00 0.00 0.00 0.00 0.01 0.01 0.03 0.05 0.05 0.07 0.06 0.04 0.02 0.01 0.00
0.00 0.00 0.00 0.00 0.00 0.00 0.00 0.00 0.00 0.00 0.00 0.00 0.00 0.00 0.00 0.00 0.00 0.00 0.00 0.00 0.00 0.00 0.00 0.00 0.00 0.00 0.00 0.00 0.00 0.00 0.00 0.00 0.03 0.07 0.15 0.21 0.18 0.10 0.04 0.02 0.01 0.00 0.00 0.00
0.01 0.00 0.01 0.01 0.00 0.00 0.00 0.00 0.00 0.00 0.00 0.00 0.00 0.00 0.00 0.00 0.00 0.00 0.01 0.00 0.01 0.00 0.00 0.00 0.00 0.00 0.00 0.00 0.00 0.01 0.01 0.03 0.07 0.11 0.14 0.08 0.01 0.00 0.00 0.00 0.00 0.00 0.00 0.00
0.01 0.02 0.07 0.00 0.00 0.00 0.00 0.00 0.00 0.00 0.00 0.00 0.00 0.00 0.00 0.00 0.00 0.02 0.02 0.03 0.02 0.00 0.00 0.00 0.00 0.00 0.00 0.00 0.02 0.02 0.01 0.02 0.02 0.00 0.00 0.00 0.00 0.00 0.00 0.00 0.00 0.00 0.00 0.00
0.02 0.03 0.02 0.00 0.00 0.00 0.00 0.00 0.00 0.00 0.02 0.02 0.02 0.02 0.01 0.01 0.03 0.06 0.05 0.04 0.00 0.00 0.00 0.00 0.00 0.01 0.03 0.03 0.03 0.03 0.01 0.00 0.00 0.00 0.00 0.00 0.00 0.00 0.00 0.00 0.00 0.00 0.00 0.00
0.03 0.05 0.04 0.00 0.00 0.00 0.00 0.01 0.01 0.04 0.09 0.14 0.11 0.19 0.12 0.07 0.08 0.06 0.03 0.00 0.00 0.00 0.00 0.00 0.01 0.01 0.01 0.01 0.00 0.00 0.00 0.00 0.00 0.00 0.00 0.00 0.00 0.00 0.00 0.00 0.00 0.00 0.00 0.00
0.01 0.04 0.01 0.00 0.00 0.01 0.14 0.17 0.06 0.12 0.17 0.11 0.16 0.19 0.19 0.18 0.05 0.00 0.00 0.00 0.00 0.00 0.00 0.00 0.00 0.01 0.01 0.00 0.00 0.00 0.01 0.01 0.00 0.00 0.00 0.00 0.00 0.00 0.00 0.00 0.00 0.00 0.01 0.01
0.07 0.16 0.06 0.00 0.03 0.15 0.18 0.08 0.08 0.07 0.06 0.08 0.10 0.19 0.18 0.05 0.02 0.00 0.00 0.00 0.00 0.00 0.00 0.00 0.01 0.00 0.00 0.00 0.00 0.00 0.00 0.01 0.01 0.01 0.00 0.00 0.00 0.00 0.00 0.00 0.00 0.01 0.02 0.02
0.04 0.03 0.00 0.00 0.03 0.02 0.04 0.10 0.07 0.07 0.09 0.16 0.26 0.16 0.04 0.03 0.00 0.00 0.00 0.00 0.00 0.00 0.01 0.01 0.00 0.00 0.00 0.00 0.00 0.01 0.02 0.03 0.01 0.00 0.00 0.00 0.00 0.00 0.00 0.00 0.01 0.01 0.03 0.03
0.02 0.01 0.00 0.01 0.01 0.02 0.06 0.08 0.13 0.20 0.24 0.21 0.10 0.06 0.03 0.00 0.00 0.00 0.00 0.01 0.01 0.02 0.02 0.00 0.00 0.00 0.01 0.01 0.02 0.03 0.02 0.01 0.00 0.00 0.00 0.00 0.00 0.00 0.00 0.01 0.01 0.02 0.02 0.04
0.05 0.01 0.02 0.04 0.07 0.14 0.21 0.31 0.29 0.19 0.14 0.07 0.03 0.01 0.01 0.01 0.00 0.00 0.01 0.01 0.02 0.04 0.04 0.00 0.00 0.00 0.01 0.02 0.02 0.01 0.01 0.00 0.00 0.00 0.00 0.00 0.00 0.00 0.00 0.00 0.01 0.04 0.05 0.12
0.10 0.06 0.23 0.22 0.33 0.42 0.38 0.27 0.15 0.09 0.04 0.01 0.01 0.00 0.00 0.00 0.00 0.00 0.02 0.03 0.03 0.02 0.00 0.00 0.00 0.00 0.01 0.01 0.00 0.00 0.01 0.01 0.01 0.00 0.00 0.00 0.00 0.00 0.00 0.00 0.00 0.01 0.04 0.12
0.16 0.13 0.22 0.32 0.34 0.22 0.20 0.13 0.04 0.01 0.00 0.00 0.00 0.00 0.00 0.00 0.01 0.02 0.03 0.03 0.01 0.00 0.00 0.00 0.00 0.01 0.01 0.00 0.00 0.01 0.01 0.00 0.00 0.00 0.00 0.00 0.00 0.01 0.01 0.01 0.00 0.01 0.03 0.03
0.05 0.10 0.20 0.20 0.19 0.14 0.06 0.01 0.00 0.00 0.00 0.00 0.00 0.00 0.00 0.01 0.03 0.03 0.02 0.00 0.00 0.00 0.00 0.00 0.02 0.02 0.01 0.01 0.01 0.01 0.00 0.00 0.00 0.00 0.00 0.01 0.01 0.02 0.02 0.03 0.03 0.02 0.03 0.02
0.01 0.03 0.09 0.04 0.01 0.01 0.00 0.00 0.00 0.00 0.00 0.00 0.00 0.00 0.01 0.02 0.02 0.00 0.00 0.00 0.00 0.00 0.01 0.02 0.02 0.01 0.02 0.00 0.00 0.00 0.01 0.00 0.00 0.01 0.01 0.01 0.02 0.02 0.02 0.02 0.03 0.03 0.02 0.02
0.00 0.00 0.00 0.00 0.00 0.01 0.00 0.00 0.00 0.00 0.00 0.00 0.00 0.01 0.01 0.01 0.00 0.00 0.00 0.00 0.01 0.01 0.01 0.02 0.03 0.04 0.01 0.01 0.00 0.00 0.00 0.00 0.00 0.01 0.01 0.02 0.02 0.02 0.02 0.02 0.03 0.04 0.05 0.06
0.00 0.01 0.03 0.04 0.02 0.00 0.00 0.00 0.00 0.00 0.00 0.00 0.00 0.00 0.00 0.00 0.00 0.00 0.00 0.00 0.01 0.00 0.01 0.04 0.05 0.02 0.00 0.00 0.00 0.01 0.01 0.00 0.01 0.02 0.02 0.02 0.02 0.02 0.02 0.04 0.04 0.05 0.08 0.10
0.01 0.01 0.01 0.00 0.00 0.00 0.00 0.00 0.00 0.00 0.00 0.00 0.00 0.00 0.00 0.01 0.01 0.01 0.00 0.01 0.02 0.02 0.03 0.05 0.03 0.01 0.00 0.00 0.01 0.01 0.01 0.01 0.02 0.02 0.02 0.02 0.02 0.02 0.02 0.04 0.04 0.06 0.07 0.06
0.00 0.00 0.00 0.00 0.00 0.00 0.00 0.00 0.00 0.00 0.00 0.00 0.00 0.00 0.01 0.01 0.01 0.01 0.02 0.05 0.06 0.08 0.05 0.02 0.01 0.00 0.00 0.00 0.01 0.01 0.02 0.03 0.03 0.02 0.02 0.02 0.02 0.03 0.04 0.05 0.05 0.06 0.07 0.07
0.00 0.00 0.00 0.00 0.00 0.00 0.00 0.00 0.00 0.00 0.00 0.00 0.00 0.01 0.02 0.01 0.01 0.03 0.07 0.07 0.08 0.06 0.01 0.00 0.00 0.00 0.01 0.01 0.01 0.01 0.03 0.04 0.03 0.03 0.03 0.03 0.04 0.04 0.04 0.04 0.04 0.05 0.06 0.08
0.00 0.00 0.00 0.00 0.00 0.00 0.00 0.00 0.00 0.00 0.00 0.00 0.02 0.02 0.03 0.02 0.04 0.08 0.11 0.07 0.04 0.01 0.00 0.01 0.01 0.01 0.02 0.03 0.02 0.03 0.05 0.05 0.05 0.05 0.05 0.05 0.05 0.04 0.04 0.05 0.05 0.05 0.05 0.06
0.00 0.00 0.00 0.00 0.00 0.00 0.00 0.00 0.00 0.00 0.00 0.00 0.02 0.03 0.06 0.06 0.08 0.09 0.05 0.02 0.01 0.01 0.01 0.01 0.02 0.03 0.04 0.04 0.03 0.04 0.04 0.05 0.05 0.05 0.05 0.05 0.05 0.05 0.04 0.05 0.05 0.05 0.05 0.05
0.00 0.00 0.00 0.00 0.00 0.01 0.01 0.01 0.02 0.01 0.01 0.02 0.05 0.06 0.07 0.08 0.08 0.05 0.03 0.01 0.00 0.01 0.01 0.02 0.03 0.03 0.03 0.04 0.05 0.05 0.06 0.06 0.05 0.05 0.05 0.06 0.05 0.05 0.04 0.04 0.04 0.04 0.03 0.03
0.00 0.00 0.01 0.01 0.03 0.04 0.04 0.02 0.01 0.01 0.02 0.04 0.06 0.07 0.07 0.06 0.03 0.01 0.01 0.01 0.01 0.01 0.01 0.02 0.01 0.01 0.03 0.04 0.05 0.06 0.06 0.06 0.05 0.05 0.05 0.05 0.05 0.04 0.04 0.04 0.03 0.03 0.02 0.02
0.00 0.02 0.03 0.03 0.05 0.04 0.02 0.01 0.02 0.03 0.05 0.07 0.08 0.05 0.03 0.03 0.04 0.01 0.01 0.01 0.01 0.01 0.01 0.02 0.01 0.01 0.03 0.05 0.05 0.06 0.06 0.05 0.05 0.06 0.05 0.04 0.04 0.04 0.04 0.04 0.04 0.03 0.02 0.02
0.02 0.04 0.03 0.02 0.02 0.02 0.03 0.04 0.06 0.06 0.10 0.11 0.07 0.04 0.03 0.02 0.01 0.01 0.01 0.02 0.01 0.02 0.01 0.02 0.03 0.04 0.05 0.05 0.05 0.06 0.06 0.05 0.04 0.04 0.04 0.03 0.04 0.03 0.03 0.03 0.03 0.03 0.03 0.02
0.03 0.05 0.05 0.03 0.02 0.03 0.06 0.10 0.12 0.09 0.09 0.11 0.07 0.03 0.03 0.03 0.03 0.04 0.04 0.03 0.02 0.03 0.03 0.03 0.04 0.04 0.04 0.05 0.06 0.06 0.05 0.04 0.03 0.04 0.03 0.03 0.03 0.03 0.03 0.03 0.04 0.04 0.03 0.03

GFSNGP_prec_precacc_033.txt.gz
Total_Precipitation_Accumulation
0.00 0.00 0.00 0.00 0.00 0.00 0.00 0.00 0.00 0.00 0.00 0.00 0.00 0.00 0.00 0.00 0.00 0.00 0.00 0.00 0.00 0.00 0.00 0.00 0.00 0.00 0.00 0.00 0.00 0.00 0.00 0.00 0.00 0.01 0.01 0.03 0.05 0.05 0.07 0.06 0.04 0.02 0.01 0.00
0.00 0.00 0.00 0.00 0.00 0.00 0.00 0.00 0.00 0.00 0.00 0.00 0.00 0.00 0.00 0.00 0.00 0.00 0.00 0.00 0.00 0.00 0.00 0.00 0.00 0.00 0.00 0.00 0.00 0.00 0.00 0.00 0.03 0.07 0.15 0.21 0.18 0.10 0.04 0.02 0.01 0.00 0.00 0.00
0.01 0.00 0.01 0.01 0.00 0.00 0.00 0.00 0.00 0.00 0.00 0.00 0.00 0.00 0.00 0.00 0.00 0.00 0.01 0.00 0.01 0.00 0.00 0.00 0.00 0.00 0.00 0.00 0.00 0.01 0.01 0.03 0.07 0.11 0.14 0.08 0.01 0.00 0.00 0.00 0.00 0.00 0.00 0.00
0.01 0.02 0.07 0.00 0.00 0.00 0.00 0.00 0.00 0.00 0.00 0.00 0.00 0.00 0.00 0.00 0.00 0.02 0.02 0.03 0.02 0.00 0.00 0.00 0.00 0.00 0.00 0.00 0.02 0.02 0.01 0.02 0.02 0.01 0.00 0.01 0.01 0.00 0.00 0.00 0.00 0.00 0.00 0.00
0.02 0.03 0.02 0.00 0.00 0.00 0.00 0.00 0.00 0.00 0.02 0.02 0.02 0.02 0.01 0.01 0.03 0.06 0.05 0.04 0.00 0.00 0.00 0.00 0.00 0.01 0.03 0.03 0.03 0.03 0.02 0.00 0.00 0.01 0.03 0.03 0.01 0.00 0.00 0.00 0.00 0.00 0.00 0.00
0.03 0.05 0.04 0.00 0.00 0.00 0.00 0.01 0.01 0.04 0.09 0.14 0.11 0.19 0.12 0.07 0.08 0.06 0.03 0.00 0.00 0.00 0.00 0.00 0.01 0.01 0.01 0.01 0.00 0.00 0.00 0.01 0.02 0.03 0.07 0.08 0.03 0.00 0.00 0.00 0.00 0.00 0.00 0.00
0.01 0.04 0.01 0.00 0.00 0.01 0.14 0.17 0.06 0.12 0.17 0.11 0.16 0.19 0.19 0.18 0.05 0.00 0.00 0.00 0.00 0.00 0.00 0.00 0.00 0.01 0.01 0.00 0.00 0.00 0.01 0.02 0.02 0.03 0.04 0.02 0.00 0.00 0.00 0.00 0.00 0.00 0.01 0.01
0.07 0.16 0.06 0.00 0.03 0.15 0.18 0.08 0.08 0.07 0.06 0.08 0.10 0.19 0.18 0.05 0.02 0.00 0.00 0.00 0.00 0.00 0.00 0.00 0.01 0.00 0.00 0.00 0.00 0.00 0.00 0.01 0.04 0.04 0.02 0.00 0.00 0.00 0.00 0.00 0.00 0.01 0.02 0.02
0.04 0.03 0.00 0.00 0.03 0.02 0.04 0.10 0.07 0.07 0.09 0.16 0.26 0.16 0.04 0.03 0.00 0.00 0.00 0.00 0.00 0.00 0.01 0.01 0.00 0.00 0.00 0.00 0.00 0.01 0.02 0.04 0.03 0.01 0.00 0.00 0.00 0.00 0.00 0.00 0.01 0.01 0.03 0.03
0.02 0.01 0.00 0.01 0.01 0.02 0.06 0.08 0.13 0.20 0.24 0.21 0.10 0.06 0.03 0.00 0.00 0.00 0.00 0.01 0.01 0.02 0.02 0.00 0.00 0.00 0.01 0.01 0.02 0.03 0.02 0.01 0.01 0.00 0.00 0.00 0.00 0.00 0.00 0.01 0.01 0.02 0.02 0.04
0.05 0.01 0.02 0.04 0.07 0.14 0.21 0.31 0.29 0.19 0.14 0.07 0.03 0.01 0.01 0.01 0.00 0.00 0.01 0.01 0.02 0.04 0.04 0.00 0.00 0.00 0.01 0.02 0.02 0.01 0.01 0.00 0.00 0.00 0.00 0.00 0.00 0.00 0.00 0.00 0.01 0.04 0.05 0.12
0.10 0.06 0.23 0.22 0.33 0.42 0.38 0.27 0.15 0.09 0.04 0.01 0.01 0.00 0.00 0.00 0.00 0.00 0.02 0.03 0.03 0.02 0.00 0.00 0.00 0.00 0.01 0.01 0.00 0.00 0.01 0.01 0.01 0.00 0.00 0.00 0.00 0.00 0.00 0.00 0.00 0.01 0.04 0.12
0.16 0.13 0.22 0.32 0.34 0.22 0.20 0.13 0.04 0.01 0.00 0.00 0.00 0.00 0.00 0.00 0.01 0.02 0.03 0.03 0.01 0.00 0.00 0.00 0.00 0.01 0.02 0.00 0.00 0.01 0.01 0.00 0.00 0.00 0.00 0.00 0.00 0.01 0.01 0.01 0.00 0.01 0.03 0.03
0.05 0.10 0.20 0.20 0.19 0.14 0.06 0.01 0.00 0.00 0.00 0.00 0.00 0.00 0.00 0.01 0.03 0.03 0.02 0.00 0.00 0.00 0.00 0.00 0.02 0.02 0.01 0.01 0.01 0.01 0.00 0.00 0.00 0.00 0.00 0.01 0.01 0.02 0.02 0.03 0.03 0.02 0.03 0.02
0.01 0.03 0.09 0.04 0.01 0.01 0.00 0.00 0.00 0.00 0.00 0.00 0.00 0.00 0.01 0.02 0.02 0.00 0.00 0.00 0.00 0.00 0.01 0.02 0.02 0.01 0.02 0.00 0.00 0.00 0.01 0.00 0.00 0.01 0.01 0.01 0.02 0.02 0.02 0.02 0.03 0.03 0.02 0.02
0.00 0.00 0.00 0.00 0.00 0.01 0.00 0.00 0.00 0.00 0.00 0.00 0.00 0.01 0.01 0.01 0.00 0.00 0.00 0.00 0.01 0.01 0.01 0.02 0.03 0.04 0.01 0.01 0.00 0.00 0.00 0.00 0.00 0.01 0.02 0.02 0.02 0.02 0.02 0.03 0.03 0.04 0.05 0.07
0.00 0.01 0.03 0.04 0.02 0.00 0.00 0.00 0.00 0.00 0.00 0.00 0.00 0.00 0.00 0.00 0.00 0.00 0.00 0.00 0.01 0.00 0.01 0.04 0.05 0.03 0.00 0.00 0.00 0.01 0.01 0.00 0.01 0.02 0.02 0.02 0.02 0.02 0.02 0.04 0.04 0.05 0.08 0.10
0.01 0.01 0.01 0.00 0.00 0.00 0.00 0.00 0.00 0.00 0.00 0.00 0.00 0.00 0.00 0.01 0.01 0.01 0.00 0.01 0.02 0.02 0.03 0.05 0.03 0.01 0.00 0.00 0.01 0.01 0.01 0.01 0.02 0.02 0.02 0.03 0.03 0.02 0.02 0.04 0.04 0.06 0.08 0.07
0.00 0.00 0.00 0.00 0.00 0.00 0.00 0.00 0.00 0.00 0.00 0.00 0.00 0.00 0.01 0.01 0.01 0.01 0.02 0.05 0.06 0.08 0.05 0.02 0.01 0.00 0.00 0.00 0.01 0.01 0.02 0.04 0.03 0.02 0.03 0.03 0.03 0.03 0.04 0.05 0.05 0.06 0.07 0.07
0.00 0.00 0.00 0.00 0.00 0.00 0.00 0.00 0.00 0.00 0.00 0.00 0.00 0.01 0.02 0.01 0.01 0.03 0.07 0.07 0.08 0.06 0.01 0.00 0.00 0.00 0.01 0.01 0.01 0.01 0.03 0.05 0.03 0.03 0.03 0.04 0.05 0.05 0.04 0.04 0.04 0.05 0.06 0.08
0.00 0.00 0.00 0.00 0.00 0.00 0.00 0.00 0.00 0.00 0.00 0.00 0.02 0.02 0.03 0.02 0.04 0.08 0.11 0.07 0.04 0.01 0.00 0.01 0.01 0.01 0.02 0.03 0.02 0.03 0.05 0.05 0.05 0.05 0.05 0.06 0.05 0.05 0.05 0.05 0.05 0.06 0.06 0.06
0.00 0.00 0.00 0.00 0.00 0.00 0.00 0.00 0.00 0.00 0.00 0.00 0.02 0.03 0.06 0.06 0.08 0.09 0.05 0.02 0.01 0.01 0.01 0.01 0.02 0.03 0.04 0.04 0.03 0.04 0.04 0.05 0.05 0.06 0.06 0.06 0.05 0.05 0.05 0.05 0.05 0.05 0.05 0.05
0.00 0.00 0.00 0.00 0.00 0.01 0.01 0.01 0.02 0.01 0.01 0.02 0.05 0.06 0.07 0.08 0.08 0.05 0.04 0.01 0.00 0.01 0.01 0.03 0.03 0.03 0.03 0.04 0.05 0.05 0.06 0.06 0.05 0.05 0.06 0.06 0.06 0.05 0.04 0.04 0.04 0.04 0.03 0.03
0.00 0.00 0.01 0.01 0.03 0.04 0.04 0.02 0.01 0.01 0.02 0.04 0.06 0.07 0.07 0.06 0.04 0.02 0.02 0.02 0.02 0.01 0.02 0.03 0.02 0.02 0.04 0.04 0.05 0.06 0.06 0.06 0.05 0.05 0.05 0.05 0.05 0.04 0.04 0.04 0.04 0.03 0.03 0.02
0.00 0.02 0.03 0.03 0.05 0.04 0.02 0.01 0.02 0.03 0.05 0.07 0.08 0.05 0.03 0.03 0.06 0.02 0.02 0.01 0.01 0.02 0.02 0.02 0.01 0.02 0.04 0.05 0.06 0.06 0.06 0.05 0.05 0.06 0.05 0.05 0.05 0.04 0.04 0.04 0.04 0.03 0.03 0.03
0.02 0.04 0.03 0.02 0.02 0.02 0.03 0.05 0.07 0.07 0.10 0.11 0.07 0.04 0.03 0.02 0.02 0.02 0.01 0.02 0.01 0.02 0.02 0.03 0.03 0.05 0.06 0.06 0.06 0.06 0.06 0.05 0.04 0.04 0.04 0.03 0.04 0.03 0.03 0.03 0.04 0.03 0.03 0.03
0.03 0.05 0.05 0.04 0.02 0.04 0.08 0.10 0.12 0.09 0.09 0.11 0.07 0.03 0.04 0.03 0.04 0.04 0.04 0.03 0.03 0.03 0.04 0.03 0.05 0.06 0.06 0.07 0.08 0.07 0.06 0.06 0.04 0.04 0.03 0.03 0.03 0.03 0.03 0.03 0.04 0.04 0.03 0.03

GFSNGP_prec_precacc_036.txt.gz
Total_Precipitation_Accumulation
0.00 0.00 0.00 0.00 0.00 0.00 0.00 0.00 0.00 0.00 0.00 0.00 0.00 0.00 0.00 0.00 0.00 0.00 0.00 0.00 0.00 0.00 0.00 0.00 0.00 0.00 0.00 0.00 0.00 0.00 0.00 0.00 0.00 0.01 0.01 0.03 0.05 0.05 0.07 0.06 0.04 0.02 0.01 0.00
0.00 0.00 0.00 0.00 0.00 0.00 0.00 0.00 0.00 0.00 0.00 0.00 0.00 0.00 0.00 0.00 0.00 0.00 0.00 0.00 0.00 0.00 0.00 0.00 0.00 0.00 0.00 0.00 0.00 0.00 0.00 0.00 0.03 0.07 0.15 0.21 0.19 0.11 0.04 0.03 0.02 0.00 0.00 0.00
0.01 0.00 0.01 0.01 0.00 0.00 0.00 0.00 0.00 0.00 0.00 0.00 0.00 0.00 0.00 0.00 0.00 0.00 0.01 0.00 0.01 0.00 0.00 0.00 0.00 0.00 0.00 0.00 0.00 0.01 0.01 0.03 0.07 0.11 0.14 0.08 0.02 0.02 0.07 0.08 0.01 0.00 0.00 0.00
0.01 0.02 0.07 0.00 0.00 0.00 0.00 0.00 0.00 0.00 0.00 0.00 0.00 0.00 0.00 0.00 0.00 0.02 0.02 0.03 0.02 0.00 0.00 0.00 0.00 0.00 0.00 0.00 0.02 0.02 0.01 0.02 0.02 0.01 0.00 0.01 0.05 0.08 0.07 0.04 0.01 0.00 0.00 0.00
0.02 0.03 0.02 0.00 0.00 0.00 0.00 0.00 0.00 0.00 0.02 0.02 0.02 0.02 0.01 0.01 0.03 0.06 0.05 0.04 0.00 0.00 0.00 0.00 0.00 0.01 0.03 0.03 0.03 0.03 0.02 0.00 0.00 0.01 0.03 0.05 0.06 0.09 0.05 0.01 0.00 0.00 0.00 0.00
0.03 0.05 0.04 0.00 0.00 0.00 0.00 0.01 0.01 0.04 0.09 0.14 0.11 0.19 0.12 0.07 0.08 0.06 0.03 0.00 0.00 0.00 0.00 0.00 0.01 0.01 0.01 0.01 0.00 0.00 0.00 0.01 0.02 0.03 0.07 0.10 0.07 0.01 0.00 0.00 0.00 0.00 0.00 0.00
0.01 0.04 0.01 0.00 0.00 0.01 0.14 0.17 0.06 0.12 0.17 0.11 0.16 0.19 0.19 0.18 0.05 0.00 0.00 0.00 0.00 0.00 0.00 0.00 0.00 0.01 0.01 0.00 0.00 0.00 0.01 0.02 0.02 0.03 0.04 0.03 0.01 0.00 0.00 0.00 0.00 0.00 0.01 0.01
0.07 0.16 0.06 0.00 0.03 0.15 0.18 0.08 0.08 0.07 0.06 0.08 0.10 0.19 0.18 0.05 0.02 0.00 0.00 0.00 0.00 0.00 0.00 0.00 0.01 0.00 0.00 0.00 0.00 0.00 0.00 0.01 0.04 0.04 0.02 0.01 0.00 0.00 0.00 0.00 0.00 0.01 0.02 0.02
0.04 0.03 0.00 0.00 0.03 0.02 0.04 0.10 0.07 0.07 0.09 0.16 0.26 0.16 0.04 0.03 0.00 0.00 0.00 0.00 0.00 0.00 0.01 0.01 0.00 0.00 0.00 0.00 0.00 0.01 0.02 0.04 0.03 0.01 0.01 0.00 0.00 0.00 0.00 0.00 0.01 0.01 0.03 0.03
0.02 0.01 0.00 0.01 0.01 0.02 0.06 0.08 0.13 0.20 0.24 0.21 0.10 0.06 0.03 0.00 0.00 0.00 0.00 0.01 0.01 0.02 0.02 0.00 0.00 0.00 0.01 0.01 0.02 0.03 0.02 0.01 0.01 0.00 0.00 0.00 0.00 0.00 0.00 0.01 0.01 0.02 0.02 0.04
0.05 0.01 0.02 0.04 0.07 0.14 0.21 0.31 0.29 0.19 0.14 0.07 0.03 0.01 0.01 0.01 0.00 0.00 0.01 0.01 0.02 0.04 0.04 0.00 0.00 0.00 0.01 0.02 0.02 0.01 0.01 0.00 0.00 0.00 0.01 0.00 0.00 0.00 0.00 0.00 0.01 0.04 0.05 0.12
0.10 0.06 0.23 0.22 0.33 0.42 0.38 0.27 0.15 0.09 0.04 0.01 0.01 0.00 0.00 0.00 0.00 0.00 0.02 0.03 0.03 0.02 0.00 0.00 0.00 0.00 0.01 0.01 0.00 0.00 0.02 0.01 0.01 0.00 0.00 0.00 0.00 0.00 0.00 0.00 0.00 0.01 0.04 0.12
0.16 0.13 0.22 0.32 0.34 0.22 0.20 0.13 0.04 0.01 0.00 0.00 0.00 0.00 0.00 0.00 0.01 0.02 0.03 0.03 0.01 0.00 0.00 0.00 0.00 0.01 0.02 0.00 0.00 0.01 0.02 0.01 0.00 0.00 0.00 0.00 0.00 0.01 0.01 0.01 0.00 0.01 0.03 0.03
0.05 0.10 0.20 0.20 0.19 0.14 0.06 0.01 0.00 0.00 0.00 0.00 0.00 0.00 0.00 0.01 0.03 0.03 0.02 0.00 0.00 0.00 0.00 0.00 0.02 0.02 0.01 0.02 0.01 0.01 0.01 0.01 0.00 0.00 0.00 0.01 0.01 0.02 0.02 0.03 0.03 0.02 0.03 0.02
0.01 0.03 0.09 0.04 0.01 0.01 0.00 0.00 0.00 0.00 0.00 0.00 0.00 0.00 0.01 0.02 0.02 0.00 0.00 0.00 0.00 0.00 0.01 0.02 0.02 0.01 0.02 0.01 0.00 0.00 0.01 0.00 0.01 0.01 0.01 0.02 0.02 0.02 0.03 0.03 0.03 0.03 0.02 0.02
0.00 0.00 0.00 0.00 0.00 0.01 0.00 0.00 0.00 0.00 0.00 0.00 0.00 0.01 0.01 0.01 0.00 0.00 0.00 0.00 0.01 0.01 0.01 0.02 0.03 0.04 0.02 0.01 0.00 0.00 0.00 0.00 0.00 0.01 0.02 0.02 0.02 0.02 0.02 0.03 0.03 0.05 0.05 0.07
0.00 0.01 0.03 0.04 0.02 0.00 0.00 0.00 0.00 0.00 0.00 0.00 0.00 0.00 0.00 0.00 0.00 0.00 0.00 0.00 0.01 0.00 0.01 0.04 0.05 0.03 0.00 0.00 0.00 0.01 0.01 0.00 0.01 0.02 0.02 0.03 0.02 0.02 0.03 0.04 0.04 0.05 0.08 0.11
0.01 0.01 0.01 0.00 0.00 0.00 0.00 0.00 0.00 0.00 0.00 0.00 0.00 0.00 0.00 0.01 0.01 0.01 0.00 0.01 0.02 0.02 0.03 0.05 0.03 0.01 0.00 0.00 0.01 0.01 0.01 0.01 0.02 0.03 0.02 0.03 0.03 0.02 0.03 0.04 0.04 0.06 0.08 0.07
0.00 0.00 0.00 0.00 0.00 0.00 0.00 0.00 0.00 0.00 0.00 0.00 0.00 0.00 0.01 0.01 0.01 0.01 0.02 0.05 0.06 0.08 0.05 0.02 0.01 0.00 0.00 0.00 0.01 0.01 0.02 0.04 0.03 0.02 0.03 0.03 0.03 0.04 0.04 0.05 0.06 0.07 0.07 0.07
0.00 0.00 0.00 0.00 0.00 0.00 0.00 0.00 0.00 0.00 0.00 0.00 0.00 0.01 0.02 0.01 0.01 0.03 0.07 0.07 0.08 0.06 0.01 0.00 0.00 0.00 0.01 0.01 0.01 0.01 0.03 0.05 0.03 0.03 0.03 0.04 0.05 0.05 0.04 0.04 0.04 0.05 0.06 0.08
0.00 0.00 0.00 0.00 0.00 0.00 0.00 0.00 0.00 0.00 0.00 0.00 0.02 0.02 0.03 0.02 0.04 0.08 0.11 0.07 0.04 0.01 0.00 0.01 0.01 0.01 0.02 0.03 0.02 0.03 0.05 0.05 0.05 0.05 0.05 0.06 0.05 0.05 0.05 0.05 0.05 0.06 0.06 0.07
0.00 0.00 0.00 0.00 0.00 0.00 0.00 0.00 0.00 0.00 0.00 0.00 0.02 0.03 0.06 0.06 0.08 0.09 0.05 0.02 0.01 0.01 0.01 0.01 0.02 0.03 0.04 0.04 0.03 0.04 0.04 0.05 0.05 0.06 0.06 0.06 0.06 0.05 0.05 0.05 0.05 0.05 0.05 0.06
0.00 0.00 0.00 0.00 0.00 0.01 0.01 0.01 0.02 0.01 0.01 0.02 0.05 0.06 0.08 0.08 0.08 0.05 0.04 0.01 0.01 0.02 0.02 0.03 0.04 0.04 0.05 0.06 0.06 0.06 0.06 0.06 0.06 0.05 0.06 0.06 0.06 0.05 0.04 0.04 0.04 0.04 0.03 0.04
0.00 0.00 0.01 0.01 0.03 0.04 0.04 0.02 0.01 0.01 0.02 0.04 0.07 0.08 0.08 0.06 0.04 0.02 0.02 0.02 0.02 0.02 0.02 0.03 0.02 0.03 0.05 0.06 0.06 0.07 0.06 0.06 0.05 0.05 0.05 0.06 0.05 0.04 0.04 0.04 0.04 0.03 0.03 0.03
0.00 0.02 0.03 0.03 0.05 0.04 0.02 0.01 0.02 0.03 0.05 0.07 0.08 0.05 0.03 0.03 0.06 0.02 0.02 0.01 0.02 0.03 0.02 0.02 0.02 0.03 0.06 0.07 0.07 0.07 0.07 0.06 0.05 0.07 0.06 0.05 0.05 0.04 0.04 0.04 0.04 0.03 0.03 0.03
0.02 0.04 0.03 0.02 0.02 0.02 0.03 0.05 0.07 0.07 0.10 0.11 0.07 0.04 0.03 0.02 0.02 0.02 0.02 0.02 0.02 0.02 0.02 0.03 0.04 0.06 0.07 0.07 0.08 0.07 0.07 0.06 0.06 0.07 0.07 0.06 0.05 0.04 0.03 0.03 0.04 0.03 0.03 0.03
0.03 0.05 0.05 0.04 0.02 0.04 0.08 0.10 0.12 0.09 0.09 0.11 0.07 0.03 0.04 0.03 0.05 0.05 0.05 0.03 0.03 0.03 0.04 0.04 0.05 0.06 0.07 0.09 0.09 0.08 0.07 0.07 0.07 0.08 0.08 0.07 0.06 0.05 0.04 0.04 0.04 0.05 0.04 0.04

GFSNGP_prec_precacc_039.txt.gz
Total_Precipitation_Accumulation
0.00 0.00 0.00 0.00 0.00 0.00 0.00 0.00 0.00 0.00 0.00 0.00 0.00 0.00 0.00 0.00 0.00 0.00 0.00 0.00 0.00 0.00 0.00 0.00 0.00 0.00 0.00 0.00 0.00 0.00 0.00 0.00 0.00 0.01 0.01 0.03 0.05 0.05 0.08 0.07 0.04 0.03 0.03 0.00
0.00 0.00 0.00 0.00 0.00 0.00 0.00 0.00 0.00 0.00 0.00 0.00 0.00 0.00 0.00 0.00 0.00 0.00 0.00 0.00 0.00 0.00 0.00 0.00 0.00 0.00 0.00 0.00 0.00 0.00 0.00 0.00 0.03 0.07 0.15 0.21 0.19 0.11 0.04 0.03 0.06 0.06 0.01 0.00
0.01 0.00 0.01 0.01 0.00 0.00 0.00 0.00 0.00 0.00 0.00 0.00 0.00 0.00 0.00 0.00 0.00 0.00 0.01 0.00 0.01 0.00 0.00 0.00 0.00 0.00 0.00 0.00 0.00 0.01 0.01 0.03 0.07 0.11 0.14 0.08 0.02 0.02 0.07 0.09 0.06 0.03 0.00 0.00
0.01 0.02 0.07 0.00 0.00 0.00 0.00 0.00 0.00 0.00 0.00 0.00 0.00 0.00 0.00 0.00 0.00 0.02 0.02 0.03 0.02 0.00 0.00 0.00 0.00 0.00 0.00 0.00 0.02 0.02 0.01 0.02 0.02 0.01 0.00 0.01 0.05 0.08 0.08 0.06 0.03 0.00 0.00 0.00
0.02 0.03 0.02 0.00 0.00 0.00 0.00 0.00 0.00 0.00 0.02 0.02 0.02 0.02 0.01 0.01 0.03 0.06 0.05 0.04 0.00 0.00 0.00 0.00 0.00 0.01 0.03 0.03 0.03 0.03 0.02 0.00 0.00 0.01 0.03 0.05 0.06 0.09 0.06 0.01 0.00 0.00 0.00 0.00
0.03 0.05 0.04 0.00 0.00 0.00 0.00 0.01 0.01 0.04 0.09 0.14 0.11 0.19 0.12 0.07 0.08 0.06 0.03 0.00 0.00 0.00 0.00 0.00 0.01 0.01 0.01 0.01 0.00 0.00 0.00 0.01 0.02 0.03 0.07 0.10 0.07 0.01 0.00 0.00 0.00 0.00 0.00 0.00
0.01 0.04 0.01 0.00 0.00 0.01 0.14 0.17 0.06 0.12 0.17 0.11 0.16 0.19 0.19 0.18 0.05 0.00 0.00 0.00 0.00 0.00 0.00 0.00 0.00 0.01 0.01 0.00 0.00 0.00 0.01 0.02 0.02 0.03 0.04 0.03 0.01 0.00 0.00 0.00 0.00 0.00 0.01 0.01
0.07 0.16 0.06 0.00 0.03 0.15 0.18 0.08 0.08 0.07 0.06 0.08 0.10 0.19 0.18 0.05 0.02 0.00 0.00 0.00 0.00 0.00 0.00 0.00 0.01 0.00 0.00 0.00 0.00 0.00 0.00 0.01 0.04 0.04 0.02 0.01 0.00 0.00 0.00 0.00 0.00 0.01 0.02 0.02
0.04 0.03 0.00 0.00 0.03 0.02 0.04 0.10 0.07 0.07 0.09 0.16 0.26 0.16 0.04 0.03 0.00 0.00 0.00 0.00 0.00 0.00 0.01 0.01 0.00 0.00 0.00 0.00 0.00 0.01 0.02 0.04 0.03 0.01 0.01 0.00 0.00 0.00 0.00 0.00 0.01 0.01 0.03 0.03
0.02 0.01 0.00 0.01 0.01 0.02 0.06 0.08 0.13 0.20 0.24 0.21 0.10 0.06 0.03 0.00 0.00 0.00 0.00 0.01 0.01 0.02 0.02 0.00 0.00 0.00 0.01 0.01 0.02 0.03 0.03 0.02 0.01 0.00 0.00 0.00 0.00 0.00 0.00 0.01 0.01 0.02 0.02 0.04
0.05 0.01 0.02 0.04 0.07 0.14 0.21 0.31 0.29 0.19 0.14 0.07 0.03 0.01 0.01 0.01 0.00 0.00 0.01 0.01 0.02 0.04 0.04 0.00 0.00 0.00 0.01 0.02 0.02 0.01 0.01 0.01 0.01 0.00 0.02 0.01 0.00 0.00 0.00 0.00 0.01 0.04 0.05 0.12
0.10 0.06 0.23 0.22 0.33 0.42 0.38 0.27 0.15 0.09 0.04 0.01 0.01 0.00 0.00 0.00 0.00 0.00 0.02 0.03 0.03 0.02 0.00 0.00 0.00 0.00 0.01 0.01 0.01 0.01 0.02 0.03 0.02 0.01 0.01 0.00 0.00 0.00 0.00 0.00 0.00 0.01 0.04 0.12
0.16 0.13 0.22 0.32 0.34 0.22 0.20 0.13 0.04 0.01 0.00 0.00 0.00 0.00 0.00 0.00 0.01 0.02 0.03 0.03 0.01 0.00 0.00 0.00 0.00 0.01 0.02 0.00 0.00 0.01 0.02 0.04 0.01 0.01 0.01 0.00 0.00 0.01 0.02 0.01 0.00 0.01 0.03 0.03
0.05 0.10 0.20 0.20 0.19 0.14 0.06 0.01 0.00 0.00 0.00 0.00 0.00 0.00 0.00 0.01 0.03 0.03 0.02 0.00 0.00 0.00 0.00 0.00 0.02 0.02 0.01 0.02 0.01 0.01 0.01 0.02 0.01 0.01 0.00 0.01 0.01 0.02 0.02 0.03 0.04 0.02 0.03 0.02
0.01 0.03 0.09 0.04 0.01 0.01 0.00 0.00 0.00 0.00 0.00 0.00 0.00 0.00 0.01 0.02 0.02 0.00 0.00 0.00 0.00 0.00 0.01 0.02 0.02 0.01 0.02 0.01 0.00 0.00 0.01 0.00 0.01 0.01 0.01 0.02 0.02 0.02 0.03 0.03 0.03 0.03 0.02 0.02
0.00 0.00 0.00 0.00 0.00 0.01 0.00 0.00 0.00 0.00 0.00 0.00 0.00 0.01 0.01 0.01 0.00 0.00 0.00 0.00 0.01 0.01 0.01 0.02 0.03 0.04 0.02 0.01 0.00 0.00 0.00 0.00 0.00 0.01 0.02 0.02 0.02 0.02 0.02 0.03 0.04 0.05 0.05 0.07
0.00 0.01 0.03 0.04 0.04 0.02 0.00 0.00 0.00 0.00 0.00 0.00 0.00 0.00 0.00 0.00 0.00 0.00 0.00 0.00 0.01 0.00 0.01 0.04 0.05 0.03 0.00 0.00 0.00 0.01 0.01 0.00 0.01 0.02 0.02 0.03 0.02 0.02 0.03 0.04 0.05 0.05 0.08 0.11
0.01 0.02 0.03 0.04 0.02 0.00 0.00 0.00 0.00 0.00 0.00 0.00 0.00 0.00 0.00 0.01 0.01 0.01 0.00 0.01 0.02 0.02 0.03 0.05 0.03 0.01 0.00 0.00 0.01 0.01 0.01 0.01 0.02 0.03 0.02 0.03 0.03 0.02 0.03 0.04 0.04 0.06 0.08 0.07
0.06 0.05 0.02 0.00 0.00 0.00 0.00 0.00 0.00 0.00 0.00 0.00 0.00 0.00 0.01 0.01 0.01 0.01 0.02 0.05 0.06 0.08 0.05 0.02 0.01 0.01 0.01 0.00 0.01 0.01 0.02 0.04 0.03 0.02 0.03 0.03 0.03 0.04 0.04 0.05 0.06 0.07 0.07 0.07
0.00 0.00 0.00 0.00 0.00 0.00 0.00 0.00 0.00 0.00 0.00 0.00 0.00 0.01 0.02 0.01 0.01 0.03 0.07 0.07 0.08 0.06 0.01 0.00 0.01 0.01 0.01 0.01 0.01 0.01 0.03 0.05 0.03 0.03 0.03 0.04 0.05 0.05 0.04 0.04 0.04 0.05 0.06 0.08
0.00 0.00 0.00 0.00 0.00 0.00 0.00 0.00 0.00 0.00 0.00 0.00 0.02 0.02 0.03 0.02 0.04 0.08 0.11 0.07 0.04 0.01 0.00 0.01 0.01 0.01 0.02 0.03 0.03 0.04 0.05 0.05 0.05 0.05 0.05 0.06 0.05 0.05 0.05 0.05 0.05 0.06 0.06 0.07
0.00 0.00 0.00 0.00 0.00 0.00 0.00 0.00 0.00 0.00 0.00 0.00 0.02 0.03 0.06 0.06 0.08 0.09 0.05 0.02 0.01 0.01 0.01 0.01 0.02 0.03 0.05 0.05 0.05 0.06 0.06 0.06 0.06 0.06 0.07 0.07 0.06 0.05 0.05 0.05 0.05 0.05 0.05 0.06
0.00 0.00 0.00 0.00 0.00 0.01 0.01 0.01 0.02 0.01 0.01 0.02 0.05 0.06 0.08 0.08 0.08 0.05 0.04 0.01 0.01 0.02 0.02 0.03 0.04 0.04 0.06 0.07 0.08 0.07 0.08 0.07 0.06 0.06 0.06 0.07 0.06 0.06 0.04 0.04 0.04 0.04 0.03 0.04
0.00 0.00 0.01 0.01 0.03 0.04 0.04 0.02 0.01 0.01 0.02 0.04 0.07 0.08 0.08 0.06 0.04 0.02 0.02 0.02 0.02 0.02 0.02 0.03 0.02 0.03 0.06 0.07 0.07 0.08 0.08 0.08 0.06 0.06 0.06 0.07 0.07 0.06 0.05 0.04 0.04 0.03 0.03 0.03
0.00 0.02 0.03 0.03 0.05 0.04 0.02 0.01 0.02 0.03 0.05 0.07 0.08 0.05 0.03 0.03 0.06 0.02 0.02 0.01 0.02 0.03 0.02 0.02 0.02 0.04 0.07 0.08 0.08 0.08 0.08 0.07 0.07 0.10 0.11 0.10 0.09 0.08 0.07 0.05 0.04 0.03 0.03 0.03
0.02 0.04 0.03 0.02 0.02 0.02 0.03 0.05 0.07 0.07 0.10 0.11 0.07 0.04 0.03 0.02 0.02 0.02 0.02 0.02 0.02 0.02 0.02 0.03 0.04 0.06 0.07 0.08 0.08 0.08 0.08 0.07 0.08 0.09 0.10 0.10 0.10 0.09 0.08 0.06 0.05 0.04 0.03 0.03
0.03 0.05 0.05 0.04 0.02 0.04 0.08 0.10 0.12 0.09 0.10 0.12 0.09 0.03 0.04 0.03 0.05 0.06 0.05 0.03 0.03 0.03 0.04 0.04 0.05 0.06 0.07 0.09 0.10 0.08 0.08 0.08 0.08 0.10 0.10 0.10 0.11 0.12 0.10 0.08 0.07 0.06 0.06 0.06

GFSNGP_prec_precacc_045.txt.gz
Total_Precipitation_Accumulation
0.00 0.00 0.00 0.00 0.00 0.00 0.00 0.00 0.00 0.00 0.00 0.00 0.00 0.00 0.00 0.00 0.00 0.00 0.00 0.00 0.00 0.00 0.00 0.00 0.00 0.00 0.00 0.00 0.00 0.00 0.00 0.00 0.00 0.01 0.01 0.03 0.05 0.05 0.08 0.07 0.04 0.03 0.03 0.02
0.00 0.00 0.00 0.00 0.00 0.00 0.00 0.00 0.00 0.00 0.00 0.00 0.00 0.00 0.00 0.00 0.00 0.00 0.00 0.00 0.00 0.00 0.00 0.00 0.00 0.00 0.00 0.00 0.00 0.00 0.00 0.00 0.03 0.07 0.15 0.21 0.19 0.11 0.04 0.03 0.06 0.06 0.04 0.04
0.01 0.00 0.01 0.01 0.00 0.00 0.00 0.00 0.00 0.00 0.00 0.00 0.00 0.00 0.00 0.00 0.00 0.00 0.01 0.00 0.01 0.00 0.00 0.00 0.00 0.00 0.00 0.00 0.00 0.01 0.01 0.03 0.07 0.11 0.14 0.08 0.02 0.02 0.07 0.09 0.06 0.03 0.01 0.00
0.01 0.02 0.07 0.00 0.00 0.00 0.00 0.00 0.00 0.00 0.00 0.00 0.00 0.00 0.00 0.00 0.00 0.02 0.02 0.03 0.02 0.00 0.00 0.00 0.00 0.00 0.00 0.00 0.02 0.02 0.01 0.02 0.02 0.01 0.00 0.01 0.05 0.08 0.08 0.06 0.03 0.00 0.00 0.00
0.02 0.03 0.02 0.00 0.00 0.00 0.00 0.00 0.00 0.00 0.02 0.02 0.02 0.02 0.01 0.01 0.03 0.06 0.05 0.04 0.00 0.00 0.00 0.00 0.00 0.01 0.03 0.03 0.03 0.03 0.02 0.00 0.00 0.01 0.03 0.05 0.06 0.09 0.06 0.01 0.00 0.00 0.00 0.00
0.03 0.05 0.04 0.00 0.00 0.00 0.00 0.01 0.01 0.04 0.09 0.14 0.11 0.19 0.12 0.07 0.08 0.06 0.03 0.00 0.00 0.00 0.00 0.00 0.01 0.01 0.01 0.01 0.00 0.00 0.00 0.01 0.02 0.03 0.07 0.10 0.07 0.01 0.00 0.00 0.00 0.00 0.00 0.00
0.01 0.04 0.01 0.00 0.00 0.01 0.14 0.17 0.06 0.12 0.17 0.11 0.16 0.19 0.19 0.18 0.05 0.00 0.00 0.00 0.00 0.00 0.00 0.00 0.00 0.01 0.01 0.00 0.00 0.00 0.01 0.02 0.02 0.03 0.04 0.03 0.01 0.00 0.00 0.00 0.03 0.02 0.02 0.01
0.07 0.16 0.06 0.00 0.03 0.15 0.18 0.08 0.08 0.07 0.06 0.08 0.10 0.19 0.18 0.05 0.02 0.00 0.00 0.00 0.00 0.00 0.00 0.00 0.01 0.00 0.00 0.00 0.00 0.00 0.00 0.01 0.04 0.04 0.02 0.01 0.00 0.00 0.00 0.02 0.02 0.01 0.02 0.02
0.04 0.03 0.00 0.00 0.03 0.02 0.04 0.10 0.07 0.07 0.09 0.16 0.26 0.16 0.04 0.03 0.00 0.00 0.00 0.00 0.00 0.00 0.01 0.01 0.00 0.00 0.00 0.00 0.00 0.01 0.02 0.04 0.04 0.01 0.01 0.00 0.00 0.00 0.00 0.00 0.01 0.01 0.03 0.03
0.02 0.01 0.00 0.01 0.01 0.02 0.06 0.08 0.13 0.20 0.24 0.21 0.10 0.06 0.03 0.00 0.00 0.00 0.00 0.01 0.01 0.02 0.02 0.00 0.00 0.00 0.01 0.01 0.02 0.03 0.03 0.02 0.02 0.01 0.00 0.01 0.01 0.01 0.00 0.01 0.01 0.02 0.02 0.04
0.05 0.01 0.02 0.04 0.07 0.14 0.21 0.31 0.29 0.19 0.14 0.07 0.03 0.01 0.01 0.01 0.00 0.00 0.01 0.01 0.02 0.04 0.04 0.00 0.00 0.00 0.01 0.02 0.02 0.02 0.01 0.01 0.01 0.00 0.02 0.02 0.00 0.00 0.00 0.00 0.01 0.04 0.05 0.12
0.10 0.06 0.23 0.22 0.33 0.42 0.38 0.27 0.15 0.09 0.04 0.01 0.01 0.01 0.00 0.00 0.00 0.00 0.02 0.03 0.03 0.02 0.00 0.00 0.00 0.00 0.01 0.01 0.01 0.01 0.02 0.03 0.03 0.01 0.02 0.01 0.00 0.00 0.00 0.00 0.00 0.01 0.04 0.12
0.16 0.13 0.22 0.32 0.34 0.22 0.20 0.13 0.04 0.01 0.00 0.00 0.00 0.00 0.00 0.00 0.01 0.02 0.03 0.03 0.01 0.00 0.00 0.00 0.00 0.01 0.02 0.00 0.01 0.01 0.03 0.05 0.02 0.01 0.01 0.00 0.01 0.01 0.02 0.01 0.00 0.01 0.03 0.03
0.05 0.10 0.20 0.20 0.19 0.14 0.06 0.01 0.00 0.00 0.00 0.01 0.02 0.00 0.00 0.01 0.03 0.03 0.02 0.00 0.00 0.00 0.00 0.00 0.02 0.02 0.01 0.02 0.01 0.01 0.01 0.02 0.02 0.01 0.01 0.02 0.01 0.02 0.02 0.03 0.04 0.02 0.03 0.02
0.01 0.03 0.09 0.04 0.01 0.01 0.00 0.00 0.00 0.01 0.02 0.02 0.00 0.00 0.01 0.02 0.02 0.00 0.00 0.00 0.00 0.00 0.01 0.02 0.02 0.01 0.02 0.01 0.00 0.00 0.01 0.00 0.01 0.01 0.02 0.02 0.02 0.02 0.03 0.03 0.04 0.03 0.02 0.02
0.00 0.00 0.00 0.00 0.00 0.01 0.01 0.03 0.05 0.04 0.00 0.00 0.00 0.01 0.01 0.01 0.00 0.00 0.00 0.00 0.01 0.01 0.01 0.02 0.03 0.04 0.02 0.01 0.00 0.00 0.00 0.00 0.00 0.01 0.02 0.02 0.02 0.02 0.02 0.03 0.04 0.05 0.05 0.07
0.00 0.01 0.03 0.04 0.07 0.07 0.06 0.03 0.00 0.00 0.00 0.00 0.00 0.00 0.00 0.00 0.00 0.00 0.00 0.00 0.01 0.00 0.01 0.04 0.05 0.03 0.00 0.00 0.00 0.01 0.01 0.00 0.01 0.02 0.02 0.03 0.02 0.02 0.03 0.04 0.05 0.05 0.08 0.11
0.01 0.02 0.06 0.11 0.06 0.01 0.00 0.00 0.00 0.00 0.00 0.00 0.00 0.00 0.00 0.01 0.01 0.01 0.00 0.01 0.02 0.02 0.03 0.05 0.03 0.01 0.00 0.00 0.01 0.01 0.02 0.02 0.03 0.03 0.03 0.03 0.03 0.02 0.03 0.04 0.04 0.06 0.08 0.07
0.07 0.08 0.04 0.00 0.00 0.00 0.00 0.00 0.00 0.00 0.00 0.00 0.00 0.00 0.01 0.01 0.01 0.01 0.02 0.05 0.06 0.08 0.05 0.02 0.01 0.01 0.01 0.00 0.02 0.04 0.05 0.06 0.05 0.03 0.04 0.03 0.04 0.04 0.04 0.05 0.06 0.07 0.07 0.07
0.00 0.00 0.00 0.00 0.00 0.00 0.00 0.00 0.00 0.00 0.00 0.00 0.00 0.01 0.02 0.01 0.01 0.03 0.07 0.07 0.08 0.06 0.01 0.00 0.01 0.01 0.01 0.02 0.02 0.04 0.05 0.07 0.06 0.05 0.04 0.05 0.07 0.06 0.05 0.05 0.05 0.05 0.07 0.08
0.00 0.00 0.00 0.00 0.00 0.00 0.00 0.00 0.00 0.00 0.00 0.00 0.02 0.02 0.03 0.02 0.04 0.08 0.11 0.07 0.04 0.01 0.00 0.01 0.01 0.01 0.02 0.04 0.04 0.06 0.08 0.09 0.09 0.09 0.09 0.09 0.09 0.08 0.08 0.08 0.08 0.08 0.07 0.08
0.00 0.00 0.00 0.00 0.00 0.00 0.00 0.00 0.00 0.00 0.00 0.00 0.02 0.03 0.06 0.06 0.08 0.09 0.05 0.02 0.01 0.01 0.01 0.01 0.02 0.04 0.05 0.07 0.08 0.08 0.08 0.09 0.09 0.10 0.11 0.10 0.11 0.10 0.09 0.08 0.08 0.07 0.08 0.07
0.00 0.00 0.00 0.00 0.00 0.01 0.01 0.01 0.02 0.01 0.01 0.02 0.05 0.06 0.08 0.08 0.08 0.05 0.04 0.01 0.01 0.02 0.02 0.03 0.04 0.05 0.06 0.08 0.09 0.09 0.10 0.10 0.10 0.09 0.09 0.11 0.11 0.11 0.09 0.08 0.07 0.07 0.06 0.06
0.00 0.00 0.01 0.01 0.03 0.04 0.04 0.02 0.01 0.01 0.02 0.04 0.07 0.08 0.08 0.06 0.04 0.02 0.03 0.04 0.05 0.06 0.04 0.03 0.03 0.03 0.06 0.07 0.08 0.09 0.09 0.09 0.08 0.08 0.09 0.10 0.11 0.10 0.10 0.09 0.08 0.06 0.07 0.06
0.00 0.02 0.03 0.03 0.05 0.04 0.02 0.01 0.02 0.03 0.05 0.07 0.08 0.05 0.03 0.04 0.09 0.06 0.06 0.06 0.05 0.06 0.04 0.04 0.03 0.04 0.07 0.08 0.08 0.09 0.09 0.09 0.08 0.11 0.13 0.12 0.11 0.11 0.10 0.10 0.10 0.09 0.09 0.07
0.02 0.04 0.03 0.02 0.02 0.02 0.03 0.05 0.07 0.07 0.10 0.11 0.07 0.04 0.04 0.05 0.06 0.05 0.05 0.05 0.05 0.06 0.06 0.06 0.05 0.06 0.07 0.08 0.08 0.08 0.08 0.08 0.09 0.10 0.12 0.12 0.12 0.11 0.11 0.12 0.13 0.11 0.10 0.09
0.03 0.05 0.05 0.04 0.02 0.04 0.08 0.10 0.13 0.10 0.10 0.12 0.10 0.03 0.05 0.05 0.07 0.09 0.08 0.09 0.10 0.10 0.08 0.07 0.07 0.07 0.08 0.09 0.10 0.09 0.08 0.09 0.09 0.11 0.12 0.13 0.15 0.16 0.16 0.16 0.16 0.16 0.17 0.16

GFSNGP_prec_precacc_048.txt.gz
Total_Precipitation_Accumulation
0.00 0.00 0.00 0.00 0.00 0.00 0.00 0.00 0.00 0.00 0.00 0.00 0.00 0.00 0.00 0.00 0.00 0.00 0.00 0.00 0.00 0.00 0.00 0.00 0.00 0.00 0.00 0.00 0.00 0.00 0.00 0.00 0.00 0.01 0.01 0.03 0.05 0.05 0.08 0.07 0.04 0.03 0.03 0.02
0.00 0.00 0.00 0.00 0.00 0.00 0.00 0.00 0.00 0.00 0.00 0.00 0.00 0.00 0.00 0.00 0.00 0.00 0.00 0.00 0.00 0.00 0.00 0.00 0.00 0.00 0.00 0.00 0.00 0.00 0.00 0.00 0.03 0.07 0.15 0.21 0.19 0.11 0.04 0.03 0.06 0.06 0.04 0.04
0.01 0.00 0.01 0.01 0.00 0.00 0.00 0.00 0.00 0.00 0.00 0.00 0.00 0.00 0.00 0.00 0.00 0.00 0.01 0.00 0.01 0.00 0.00 0.00 0.00 0.00 0.00 0.00 0.00 0.01 0.01 0.03 0.07 0.11 0.14 0.08 0.02 0.02 0.07 0.09 0.06 0.03 0.01 0.00
0.01 0.02 0.07 0.00 0.00 0.00 0.00 0.00 0.00 0.00 0.00 0.00 0.00 0.00 0.00 0.00 0.00 0.02 0.02 0.03 0.02 0.00 0.00 0.00 0.00 0.00 0.00 0.00 0.02 0.02 0.01 0.02 0.02 0.01 0.00 0.01 0.05 0.08 0.08 0.06 0.03 0.01 0.00 0.00
0.02 0.03 0.02 0.00 0.00 0.00 0.00 0.00 0.00 0.00 0.02 0.02 0.02 0.02 0.01 0.01 0.03 0.06 0.05 0.04 0.00 0.00 0.00 0.00 0.00 0.01 0.03 0.03 0.03 0.03 0.02 0.00 0.00 0.01 0.03 0.05 0.06 0.09 0.06 0.01 0.00 0.00 0.00 0.00
0.03 0.05 0.04 0.00 0.00 0.00 0.00 0.01 0.01 0.04 0.09 0.14 0.11 0.19 0.12 0.07 0.08 0.06 0.03 0.00 0.00 0.00 0.00 0.00 0.01 0.01 0.01 0.01 0.00 0.00 0.00 0.01 0.02 0.03 0.07 0.10 0.07 0.01 0.00 0.00 0.00 0.00 0.00 0.00
0.01 0.04 0.01 0.00 0.00 0.01 0.14 0.17 0.06 0.12 0.17 0.11 0.16 0.19 0.19 0.18 0.05 0.00 0.00 0.00 0.00 0.00 0.00 0.00 0.00 0.01 0.01 0.00 0.00 0.00 0.01 0.02 0.02 0.03 0.04 0.03 0.01 0.00 0.00 0.00 0.03 0.03 0.02 0.01
0.07 0.16 0.06 0.00 0.03 0.15 0.18 0.08 0.08 0.07 0.06 0.08 0.10 0.19 0.18 0.05 0.02 0.00 0.00 0.00 0.00 0.00 0.00 0.00 0.01 0.00 0.00 0.00 0.00 0.00 0.00 0.01 0.04 0.04 0.02 0.01 0.00 0.00 0.00 0.02 0.03 0.02 0.02 0.02
0.04 0.03 0.00 0.00 0.03 0.02 0.04 0.10 0.07 0.07 0.09 0.16 0.26 0.16 0.04 0.03 0.00 0.00 0.00 0.00 0.00 0.00 0.01 0.01 0.00 0.00 0.00 0.00 0.00 0.01 0.02 0.04 0.04 0.01 0.01 0.00 0.00 0.00 0.00 0.01 0.01 0.02 0.03 0.03
0.02 0.01 0.00 0.01 0.01 0.02 0.06 0.08 0.13 0.20 0.24 0.21 0.10 0.06 0.03 0.00 0.00 0.00 0.00 0.01 0.01 0.02 0.02 0.00 0.00 0.00 0.01 0.01 0.02 0.03 0.03 0.02 0.02 0.01 0.00 0.01 0.01 0.01 0.01 0.01 0.02 0.02 0.02 0.05
0.05 0.01 0.02 0.04 0.07 0.14 0.21 0.31 0.29 0.19 0.14 0.07 0.03 0.01 0.01 0.01 0.00 0.00 0.01 0.02 0.02 0.04 0.04 0.00 0.00 0.00 0.01 0.02 0.02 0.02 0.01 0.01 0.01 0.00 0.03 0.02 0.00 0.00 0.00 0.01 0.02 0.04 0.05 0.13
0.10 0.06 0.23 0.22 0.33 0.42 0.38 0.27 0.15 0.09 0.04 0.01 0.01 0.01 0.00 0.00 0.00 0.01 0.02 0.03 0.03 0.02 0.00 0.00 0.00 0.00 0.01 0.01 0.01 0.01 0.02 0.03 0.03 0.02 0.02 0.01 0.00 0.00 0.00 0.00 0.00 0.01 0.04 0.12
0.16 0.13 0.22 0.32 0.34 0.22 0.20 0.13 0.04 0.01 0.00 0.00 0.00 0.00 0.00 0.01 0.01 0.02 0.03 0.03 0.01 0.00 0.00 0.00 0.00 0.01 0.02 0.00 0.01 0.01 0.03 0.05 0.02 0.01 0.02 0.01 0.01 0.02 0.02 0.01 0.00 0.01 0.03 0.03
0.05 0.10 0.20 0.20 0.19 0.14 0.06 0.01 0.00 0.00 0.00 0.02 0.04 0.02 0.01 0.01 0.03 0.03 0.02 0.00 0.00 0.00 0.00 0.00 0.02 0.02 0.01 0.02 0.01 0.01 0.01 0.02 0.02 0.02 0.02 0.02 0.02 0.03 0.03 0.04 0.04 0.02 0.03 0.02
0.01 0.03 0.09 0.04 0.01 0.01 0.00 0.00 0.00 0.01 0.04 0.02 0.00 0.00 0.01 0.02 0.02 0.00 0.00 0.00 0.00 0.00 0.01 0.02 0.02 0.01 0.02 0.01 0.00 0.00 0.01 0.01 0.01 0.02 0.02 0.02 0.03 0.03 0.03 0.04 0.04 0.03 0.02 0.02
0.00 0.00 0.00 0.00 0.00 0.01 0.01 0.03 0.05 0.04 0.00 0.00 0.00 0.01 0.01 0.01 0.00 0.00 0.00 0.00 0.01 0.01 0.01 0.02 0.03 0.04 0.02 0.01 0.00 0.00 0.01 0.00 0.01 0.02 0.02 0.02 0.03 0.03 0.02 0.03 0.04 0.05 0.06 0.07
0.00 0.01 0.03 0.04 0.07 0.07 0.06 0.03 0.00 0.00 0.00 0.00 0.00 0.00 0.00 0.00 0.00 0.00 0.00 0.00 0.01 0.00 0.01 0.04 0.05 0.03 0.00 0.00 0.00 0.01 0.01 0.01 0.01 0.03 0.03 0.03 0.03 0.03 0.03 0.05 0.05 0.06 0.09 0.11
0.01 0.02 0.06 0.11 0.06 0.01 0.00 0.00 0.00 0.00 0.00 0.00 0.00 0.00 0.00 0.01 0.01 0.01 0.00 0.01 0.02 0.02 0.03 0.05 0.03 0.01 0.00 0.00 0.01 0.01 0.02 0.03 0.04 0.05 0.04 0.04 0.04 0.04 0.04 0.05 0.05 0.07 0.08 0.07
0.07 0.08 0.04 0.00 0.00 0.00 0.00 0.00 0.00 0.00 0.00 0.00 0.00 0.00 0.01 0.01 0.01 0.01 0.02 0.05 0.06 0.08 0.05 0.02 0.01 0.01 0.01 0.00 0.02 0.05 0.05 0.06 0.05 0.03 0.04 0.04 0.05 0.05 0.06 0.07 0.07 0.07 0.07 0.07
0.00 0.00 0.00 0.00 0.00 0.00 0.00 0.00 0.00 0.00 0.00 0.00 0.00 0.01 0.02 0.01 0.01 0.03 0.07 0.07 0.08 0.06 0.01 0.00 0.01 0.01 0.01 0.02 0.02 0.04 0.06 0.08 0.07 0.06 0.06 0.07 0.09 0.08 0.07 0.07 0.07 0.08 0.09 0.10
0.00 0.00 0.00 0.00 0.00 0.00 0.00 0.00 0.00 0.00 0.00 0.00 0.02 0.02 0.03 0.02 0.04 0.08 0.11 0.07 0.04 0.01 0.00 0.01 0.01 0.01 0.02 0.04 0.04 0.06 0.09 0.10 0.11 0.10 0.10 0.11 0.11 0.10 0.11 0.10 0.11 0.11 0.10 0.11
0.00 0.00 0.00 0.00 0.00 0.00 0.00 0.00 0.00 0.00 0.00 0.00 0.02 0.03 0.06 0.06 0.08 0.09 0.05 0.02 0.02 0.02 0.02 0.02 0.03 0.05 0.07 0.08 0.08 0.08 0.08 0.10 0.10 0.11 0.12 0.12 0.14 0.13 0.11 0.10 0.11 0.10 0.10 0.10
0.00 0.00 0.00 0.00 0.00 0.01 0.01 0.01 0.02 0.01 0.01 0.02 0.05 0.06 0.08 0.08 0.08 0.06 0.04 0.01 0.01 0.03 0.04 0.06 0.09 0.10 0.10 0.10 0.09 0.09 0.10 0.10 0.10 0.10 0.10 0.12 0.13 0.13 0.11 0.10 0.09 0.10 0.08 0.08
0.00 0.00 0.01 0.01 0.03 0.04 0.04 0.02 0.01 0.01 0.02 0.04 0.07 0.08 0.08 0.06 0.04 0.02 0.04 0.04 0.06 0.08 0.09 0.09 0.08 0.07 0.09 0.09 0.08 0.09 0.10 0.09 0.09 0.09 0.09 0.11 0.12 0.11 0.11 0.10 0.10 0.08 0.09 0.08
0.00 0.02 0.03 0.03 0.05 0.04 0.02 0.01 0.02 0.03 0.05 0.07 0.08 0.05 0.03 0.04 0.10 0.06 0.07 0.07 0.07 0.08 0.08 0.09 0.07 0.07 0.10 0.10 0.09 0.09 0.09 0.09 0.09 0.12 0.13 0.13 0.12 0.12 0.11 0.11 0.11 0.11 0.11 0.10
0.02 0.04 0.03 0.02 0.02 0.02 0.03 0.05 0.07 0.07 0.10 0.11 0.07 0.04 0.04 0.05 0.06 0.06 0.05 0.06 0.06 0.08 0.10 0.11 0.11 0.12 0.11 0.10 0.09 0.09 0.09 0.09 0.09 0.10 0.12 0.12 0.12 0.12 0.12 0.13 0.13 0.12 0.11 0.11
0.03 0.05 0.05 0.04 0.02 0.04 0.08 0.10 0.13 0.10 0.10 0.12 0.10 0.03 0.05 0.05 0.07 0.10 0.09 0.10 0.12 0.13 0.13 0.12 0.12 0.12 0.11 0.12 0.12 0.10 0.09 0.10 0.09 0.11 0.12 0.13 0.15 0.16 0.16 0.16 0.16 0.17 0.17 0.17

GFSNGP_prec_precacc_054.txt.gz
Total_Precipitation_Accumulation
0.00 0.00 0.00 0.00 0.00 0.00 0.00 0.00 0.00 0.00 0.00 0.00 0.00 0.00 0.00 0.00 0.00 0.00 0.00 0.00 0.00 0.00 0.00 0.00 0.00 0.00 0.00 0.00 0.00 0.00 0.00 0.00 0.00 0.01 0.01 0.03 0.05 0.05 0.08 0.07 0.04 0.03 0.03 0.02
0.00 0.00 0.00 0.00 0.00 0.00 0.00 0.00 0.00 0.00 0.00 0.00 0.00 0.00 0.00 0.00 0.00 0.00 0.00 0.00 0.00 0.00 0.00 0.00 0.00 0.00 0.00 0.00 0.00 0.00 0.00 0.00 0.03 0.07 0.15 0.21 0.19 0.11 0.04 0.03 0.06 0.06 0.04 0.04
0.01 0.00 0.01 0.01 0.00 0.00 0.00 0.00 0.00 0.00 0.00 0.00 0.00 0.00 0.00 0.00 0.00 0.00 0.01 0.00 0.01 0.00 0.00 0.00 0.00 0.00 0.00 0.00 0.00 0.01 0.01 0.03 0.07 0.11 0.14 0.08 0.02 0.02 0.07 0.09 0.06 0.03 0.01 0.00
0.01 0.02 0.07 0.00 0.00 0.00 0.00 0.00 0.00 0.00 0.00 0.00 0.00 0.00 0.00 0.00 0.00 0.02 0.02 0.03 0.02 0.00 0.00 0.00 0.00 0.00 0.00 0.00 0.02 0.02 0.01 0.02 0.02 0.01 0.00 0.01 0.05 0.08 0.08 0.06 0.03 0.01 0.00 0.01
0.02 0.03 0.02 0.00 0.00 0.00 0.00 0.00 0.00 0.00 0.02 0.02 0.02 0.02 0.01 0.01 0.03 0.06 0.05 0.04 0.00 0.00 0.00 0.00 0.00 0.01 0.03 0.03 0.03 0.03 0.02 0.00 0.00 0.01 0.03 0.05 0.06 0.09 0.06 0.01 0.00 0.00 0.00 0.01
0.03 0.05 0.04 0.00 0.00 0.00 0.00 0.01 0.01 0.04 0.09 0.14 0.11 0.19 0.12 0.07 0.08 0.06 0.03 0.00 0.00 0.00 0.00 0.00 0.01 0.01 0.01 0.01 0.00 0.00 0.00 0.01 0.02 0.03 0.07 0.10 0.07 0.01 0.00 0.00 0.00 0.00 0.00 0.01
0.01 0.04 0.01 0.00 0.00 0.01 0.14 0.17 0.06 0.12 0.17 0.11 0.16 0.19 0.19 0.18 0.05 0.00 0.00 0.00 0.00 0.00 0.00 0.00 0.00 0.01 0.01 0.00 0.00 0.00 0.01 0.02 0.02 0.03 0.04 0.03 0.01 0.00 0.00 0.00 0.03 0.03 0.03 0.01
0.07 0.16 0.06 0.00 0.03 0.15 0.18 0.08 0.08 0.07 0.06 0.08 0.10 0.19 0.18 0.05 0.02 0.00 0.00 0.00 0.00 0.00 0.00 0.00 0.01 0.00 0.00 0.00 0.00 0.00 0.00 0.01 0.04 0.04 0.02 0.01 0.00 0.00 0.00 0.02 0.03 0.03 0.03 0.03
0.04 0.03 0.00 0.00 0.03 0.02 0.04 0.10 0.07 0.07 0.09 0.16 0.26 0.16 0.04 0.03 0.00 0.00 0.00 0.00 0.00 0.00 0.01 0.01 0.00 0.00 0.00 0.00 0.00 0.01 0.02 0.04 0.04 0.01 0.01 0.00 0.00 0.00 0.00 0.01 0.01 0.03 0.05 0.05
0.02 0.01 0.00 0.01 0.01 0.02 0.06 0.08 0.13 0.20 0.24 0.21 0.10 0.06 0.03 0.00 0.00 0.00 0.00 0.01 0.02 0.03 0.02 0.00 0.00 0.00 0.01 0.01 0.02 0.03 0.03 0.02 0.02 0.01 0.00 0.01 0.01 0.01 0.01 0.01 0.02 0.03 0.03 0.06
0.05 0.01 0.02 0.04 0.07 0.14 0.21 0.31 0.29 0.19 0.14 0.07 0.03 0.01 0.01 0.01 0.00 0.00 0.02 0.04 0.03 0.04 0.04 0.00 0.00 0.00 0.01 0.02 0.02 0.02 0.01 0.01 0.01 0.00 0.03 0.02 0.00 0.00 0.00 0.01 0.02 0.04 0.06 0.13
0.10 0.06 0.23 0.22 0.33 0.42 0.38 0.27 0.15 0.09 0.04 0.01 0.01 0.01 0.00 0.00 0.01 0.02 0.03 0.03 0.04 0.03 0.01 0.00 0.00 0.00 0.01 0.01 0.01 0.01 0.02 0.03 0.03 0.02 0.02 0.01 0.00 0.00 0.00 0.00 0.00 0.01 0.04 0.12
0.16 0.13 0.22 0.32 0.34 0.22 0.20 0.13 0.04 0.01 0.00 0.00 0.00 0.00 0.01 0.01 0.02 0.03 0.03 0.03 0.01 0.00 0.00 0.00 0.00 0.01 0.02 0.00 0.01 0.01 0.03 0.05 0.02 0.01 0.02 0.01 0.01 0.02 0.02 0.01 0.00 0.01 0.03 0.03
0.05 0.10 0.20 0.20 0.19 0.14 0.06 0.01 0.00 0.00 0.00 0.02 0.04 0.02 0.01 0.01 0.03 0.03 0.02 0.00 0.00 0.00 0.00 0.00 0.02 0.02 0.01 0.02 0.01 0.01 0.01 0.02 0.02 0.02 0.02 0.02 0.02 0.04 0.04 0.05 0.05 0.03 0.03 0.02
0.01 0.03 0.09 0.04 0.01 0.01 0.00 0.00 0.00 0.01 0.04 0.02 0.00 0.00 0.01 0.02 0.02 0.00 0.00 0.00 0.00 0.00 0.01 0.02 0.02 0.01 0.02 0.01 0.00 0.00 0.01 0.01 0.01 0.02 0.03 0.03 0.04 0.04 0.04 0.04 0.05 0.04 0.03 0.03
0.00 0.00 0.00 0.00 0.00 0.01 0.01 0.03 0.05 0.04 0.00 0.00 0.00 0.01 0.01 0.01 0.00 0.00 0.00 0.00 0.01 0.01 0.01 0.02 0.03 0.04 0.02 0.01 0.00 0.00 0.01 0.00 0.01 0.02 0.03 0.03 0.04 0.04 0.04 0.06 0.07 0.07 0.07 0.08
0.00 0.01 0.03 0.04 0.07 0.07 0.06 0.03 0.00 0.00 0.00 0.00 0.00 0.00 0.00 0.00 0.00 0.00 0.00 0.00 0.01 0.00 0.01 0.04 0.05 0.03 0.00 0.00 0.01 0.01 0.02 0.01 0.02 0.04 0.05 0.06 0.07 0.07 0.07 0.09 0.10 0.09 0.11 0.12
0.01 0.02 0.06 0.11 0.06 0.01 0.00 0.00 0.00 0.00 0.00 0.00 0.00 0.00 0.00 0.01 0.01 0.01 0.00 0.01 0.02 0.02 0.03 0.05 0.03 0.01 0.00 0.00 0.01 0.03 0.04 0.05 0.07 0.09 0.08 0.08 0.06 0.06 0.06 0.08 0.07 0.10 0.11 0.09
0.07 0.08 0.04 0.00 0.00 0.00 0.00 0.00 0.00 0.00 0.00 0.00 0.00 0.00 0.01 0.01 0.01 0.01 0.02 0.05 0.06 0.08 0.05 0.02 0.01 0.01 0.01 0.01 0.03 0.06 0.09 0.12 0.12 0.10 0.07 0.06 0.07 0.07 0.09 0.11 0.11 0.12 0.12 0.13
0.00 0.00 0.00 0.00 0.00 0.00 0.00 0.00 0.00 0.00 0.00 0.00 0.00 0.01 0.02 0.01 0.01 0.03 0.07 0.07 0.08 0.06 0.01 0.00 0.01 0.01 0.02 0.03 0.04 0.08 0.10 0.13 0.11 0.09 0.09 0.11 0.13 0.13 0.12 0.12 0.13 0.16 0.16 0.17
0.00 0.00 0.00 0.00 0.00 0.00 0.00 0.00 0.00 0.00 0.00 0.00 0.02 0.02 0.03 0.02 0.04 0.08 0.11 0.07 0.04 0.01 0.00 0.01 0.02 0.02 0.04 0.07 0.07 0.11 0.16 0.20 0.23 0.21 0.17 0.17 0.16 0.15 0.16 0.16 0.17 0.18 0.17 0.16
0.00 0.00 0.00 0.00 0.00 0.00 0.00 0.00 0.00 0.00 0.00 0.00 0.02 0.03 0.06 0.06 0.08 0.09 0.05 0.02 0.02 0.02 0.02 0.04 0.05 0.07 0.10 0.13 0.15 0.18 0.19 0.22 0.19 0.16 0.16 0.16 0.16 0.15 0.13 0.13 0.13 0.12 0.13 0.13
0.00 0.00 0.00 0.00 0.00 0.01 0.01 0.01 0.02 0.01 0.01 0.02 0.05 0.06 0.08 0.08 0.08 0.06 0.04 0.01 0.02 0.03 0.06 0.10 0.11 0.11 0.12 0.16 0.20 0.21 0.20 0.17 0.15 0.14 0.14 0.14 0.15 0.15 0.13 0.12 0.11 0.12 0.11 0.11
0.00 0.00 0.01 0.01 0.03 0.04 0.04 0.02 0.01 0.01 0.02 0.04 0.07 0.08 0.08 0.06 0.04 0.02 0.04 0.05 0.07 0.09 0.12 0.13 0.09 0.09 0.14 0.19 0.17 0.17 0.17 0.15 0.13 0.13 0.13 0.14 0.14 0.13 0.14 0.12 0.11 0.09 0.10 0.10
0.00 0.02 0.03 0.03 0.05 0.04 0.02 0.01 0.02 0.03 0.05 0.07 0.08 0.05 0.03 0.04 0.10 0.07 0.08 0.09 0.09 0.10 0.10 0.11 0.08 0.10 0.15 0.16 0.15 0.15 0.16 0.14 0.13 0.16 0.17 0.16 0.14 0.13 0.12 0.12 0.12 0.12 0.12 0.11
0.02 0.04 0.03 0.02 0.02 0.02 0.03 0.05 0.07 0.07 0.10 0.11 0.07 0.04 0.04 0.06 0.07 0.07 0.06 0.08 0.07 0.09 0.12 0.13 0.13 0.14 0.15 0.14 0.15 0.14 0.14 0.13 0.12 0.13 0.15 0.14 0.14 0.13 0.13 0.13 0.14 0.13 0.12 0.12
0.03 0.05 0.05 0.04 0.02 0.04 0.08 0.10 0.13 0.10 0.10 0.13 0.11 0.04 0.05 0.06 0.08 0.11 0.10 0.11 0.13 0.15 0.15 0.14 0.14 0.14 0.14 0.15 0.15 0.14 0.13 0.13 0.12 0.12 0.13 0.14 0.16 0.17 0.17 0.16 0.17 0.17 0.18 0.18

GFSNGP_prec_precacc_057.txt.gz
Total_Precipitation_Accumulation
0.00 0.00 0.00 0.00 0.00 0.00 0.00 0.00 0.00 0.00 0.00 0.00 0.00 0.00 0.00 0.00 0.00 0.00 0.00 0.00 0.00 0.00 0.00 0.00 0.00 0.00 0.00 0.00 0.00 0.00 0.00 0.00 0.00 0.01 0.01 0.03 0.05 0.05 0.08 0.07 0.04 0.03 0.03 0.02
0.00 0.00 0.00 0.00 0.00 0.00 0.00 0.00 0.00 0.00 0.00 0.00 0.00 0.00 0.00 0.00 0.00 0.00 0.00 0.00 0.00 0.00 0.00 0.00 0.00 0.00 0.00 0.00 0.00 0.00 0.00 0.00 0.03 0.07 0.15 0.21 0.19 0.11 0.04 0.03 0.06 0.06 0.04 0.04
0.01 0.00 0.01 0.01 0.00 0.00 0.00 0.00 0.00 0.00 0.00 0.00 0.00 0.00 0.00 0.00 0.00 0.00 0.01 0.00 0.01 0.00 0.00 0.00 0.00 0.00 0.00 0.00 0.00 0.01 0.01 0.03 0.07 0.11 0.14 0.08 0.02 0.02 0.07 0.09 0.06 0.03 0.01 0.00
0.01 0.02 0.07 0.00 0.00 0.00 0.00 0.00 0.00 0.00 0.00 0.00 0.00 0.00 0.00 0.00 0.00 0.02 0.02 0.03 0.02 0.00 0.00 0.00 0.00 0.00 0.00 0.00 0.02 0.02 0.01 0.02 0.02 0.01 0.00 0.01 0.05 0.08 0.08 0.06 0.03 0.01 0.00 0.01
0.02 0.03 0.02 0.00 0.00 0.00 0.00 0.00 0.00 0.00 0.02 0.02 0.02 0.02 0.01 0.01 0.03 0.06 0.05 0.04 0.00 0.00 0.00 0.00 0.00 0.01 0.03 0.03 0.03 0.03 0.02 0.00 0.00 0.01 0.03 0.05 0.06 0.09 0.06 0.01 0.00 0.00 0.00 0.01
0.03 0.05 0.04 0.00 0.00 0.00 0.00 0.01 0.01 0.04 0.09 0.14 0.11 0.19 0.12 0.07 0.08 0.06 0.03 0.00 0.00 0.00 0.00 0.00 0.01 0.01 0.01 0.01 0.00 0.00 0.00 0.01 0.02 0.03 0.07 0.10 0.07 0.01 0.00 0.00 0.00 0.00 0.00 0.01
0.01 0.04 0.01 0.00 0.00 0.01 0.14 0.17 0.06 0.12 0.17 0.11 0.16 0.19 0.19 0.18 0.05 0.00 0.00 0.00 0.00 0.00 0.00 0.00 0.00 0.01 0.01 0.00 0.00 0.00 0.01 0.02 0.02 0.03 0.04 0.03 0.01 0.00 0.00 0.00 0.03 0.03 0.03 0.01
0.07 0.16 0.06 0.00 0.03 0.15 0.18 0.08 0.08 0.07 0.06 0.08 0.10 0.19 0.18 0.05 0.02 0.00 0.00 0.00 0.00 0.00 0.00 0.00 0.01 0.00 0.00 0.00 0.00 0.00 0.00 0.01 0.04 0.04 0.02 0.01 0.00 0.00 0.00 0.02 0.03 0.03 0.03 0.03
0.04 0.03 0.00 0.00 0.03 0.02 0.04 0.10 0.07 0.07 0.09 0.16 0.26 0.16 0.04 0.03 0.00 0.00 0.00 0.00 0.00 0.00 0.01 0.01 0.00 0.00 0.00 0.00 0.00 0.01 0.02 0.04 0.04 0.01 0.01 0.00 0.00 0.00 0.00 0.01 0.01 0.03 0.05 0.05
0.02 0.01 0.00 0.01 0.01 0.02 0.06 0.08 0.13 0.20 0.24 0.21 0.10 0.06 0.03 0.00 0.00 0.00 0.00 0.01 0.02 0.03 0.02 0.00 0.00 0.00 0.01 0.01 0.02 0.03 0.03 0.02 0.02 0.01 0.00 0.01 0.01 0.01 0.01 0.01 0.02 0.03 0.03 0.07
0.05 0.01 0.02 0.04 0.07 0.14 0.21 0.31 0.29 0.19 0.14 0.07 0.03 0.01 0.01 0.01 0.00 0.00 0.02 0.04 0.03 0.04 0.04 0.00 0.00 0.00 0.01 0.02 0.02 0.02 0.01 0.01 0.01 0.00 0.03 0.02 0.00 0.00 0.00 0.01 0.02 0.04 0.06 0.14
0.10 0.06 0.23 0.22 0.33 0.42 0.38 0.27 0.15 0.09 0.04 0.01 0.01 0.01 0.00 0.00 0.01 0.02 0.03 0.03 0.04 0.03 0.01 0.00 0.00 0.00 0.01 0.01 0.01 0.01 0.02 0.03 0.03 0.02 0.02 0.01 0.00 0.00 0.00 0.00 0.00 0.01 0.04 0.12
0.16 0.13 0.22 0.32 0.34 0.22 0.20 0.13 0.04 0.01 0.00 0.00 0.00 0.00 0.01 0.01 0.02 0.03 0.03 0.03 0.01 0.00 0.00 0.00 0.00 0.01 0.02 0.00 0.01 0.01 0.03 0.05 0.02 0.01 0.02 0.01 0.01 0.02 0.02 0.01 0.00 0.01 0.03 0.03
0.05 0.10 0.20 0.20 0.19 0.14 0.06 0.01 0.00 0.00 0.00 0.02 0.04 0.02 0.01 0.01 0.03 0.03 0.02 0.00 0.00 0.00 0.00 0.00 0.02 0.02 0.01 0.02 0.01 0.01 0.01 0.02 0.02 0.02 0.02 0.02 0.02 0.04 0.04 0.05 0.05 0.03 0.03 0.02
0.01 0.03 0.09 0.04 0.01 0.01 0.00 0.00 0.00 0.01 0.04 0.02 0.00 0.00 0.01 0.02 0.02 0.00 0.00 0.00 0.00 0.00 0.01 0.02 0.02 0.01 0.02 0.01 0.00 0.00 0.01 0.01 0.01 0.02 0.03 0.03 0.04 0.04 0.04 0.05 0.06 0.04 0.03 0.03
0.00 0.00 0.00 0.00 0.00 0.01 0.01 0.03 0.05 0.04 0.00 0.00 0.00 0.01 0.01 0.01 0.00 0.00 0.00 0.00 0.01 0.01 0.01 0.02 0.03 0.04 0.02 0.01 0.00 0.00 0.01 0.00 0.01 0.03 0.04 0.04 0.06 0.08 0.09 0.10 0.10 0.10 0.09 0.08
0.00 0.01 0.03 0.04 0.07 0.07 0.06 0.03 0.00 0.00 0.00 0.00 0.00 0.00 0.00 0.00 0.00 0.00 0.00 0.00 0.01 0.00 0.01 0.04 0.05 0.03 0.00 0.00 0.01 0.01 0.02 0.02 0.03 0.05 0.06 0.09 0.12 0.14 0.13 0.13 0.11 0.09 0.12 0.12
0.01 0.02 0.06 0.11 0.06 0.01 0.00 0.00 0.00 0.00 0.00 0.00 0.00 0.00 0.00 0.01 0.01 0.01 0.00 0.01 0.02 0.02 0.03 0.05 0.03 0.01 0.00 0.00 0.01 0.03 0.05 0.06 0.08 0.10 0.10 0.12 0.12 0.12 0.09 0.08 0.07 0.10 0.11 0.09
0.07 0.08 0.04 0.00 0.00 0.00 0.00 0.00 0.00 0.00 0.00 0.00 0.00 0.00 0.01 0.01 0.01 0.01 0.02 0.05 0.06 0.08 0.05 0.02 0.01 0.01 0.01 0.01 0.03 0.06 0.09 0.12 0.13 0.11 0.11 0.10 0.11 0.10 0.11 0.13 0.14 0.16 0.15 0.14
0.00 0.00 0.00 0.00 0.00 0.00 0.00 0.00 0.00 0.00 0.00 0.00 0.00 0.01 0.02 0.01 0.01 0.03 0.07 0.07 0.08 0.06 0.01 0.00 0.01 0.01 0.02 0.03 0.04 0.08 0.11 0.13 0.12 0.13 0.16 0.21 0.26 0.21 0.17 0.16 0.17 0.19 0.19 0.22
0.00 0.00 0.00 0.00 0.00 0.00 0.00 0.00 0.00 0.00 0.00 0.00 0.02 0.02 0.03 0.02 0.04 0.08 0.11 0.07 0.04 0.01 0.00 0.01 0.02 0.02 0.04 0.07 0.08 0.12 0.18 0.22 0.27 0.30 0.25 0.23 0.20 0.18 0.17 0.17 0.18 0.18 0.17 0.18
0.00 0.00 0.00 0.00 0.00 0.00 0.00 0.00 0.00 0.00 0.00 0.00 0.02 0.03 0.06 0.06 0.08 0.09 0.05 0.02 0.02 0.02 0.02 0.04 0.05 0.07 0.10 0.13 0.15 0.19 0.21 0.24 0.22 0.18 0.19 0.18 0.18 0.17 0.15 0.14 0.14 0.13 0.14 0.14
0.00 0.00 0.00 0.00 0.00 0.01 0.01 0.01 0.02 0.01 0.01 0.02 0.05 0.06 0.08 0.08 0.08 0.06 0.05 0.01 0.02 0.03 0.06 0.10 0.11 0.11 0.12 0.16 0.20 0.21 0.21 0.18 0.16 0.15 0.16 0.16 0.17 0.17 0.16 0.13 0.12 0.13 0.12 0.11
0.00 0.00 0.01 0.01 0.03 0.04 0.04 0.02 0.01 0.01 0.02 0.04 0.07 0.08 0.08 0.06 0.04 0.02 0.04 0.05 0.07 0.09 0.12 0.13 0.09 0.09 0.14 0.19 0.17 0.17 0.18 0.15 0.13 0.14 0.14 0.16 0.16 0.15 0.16 0.14 0.12 0.10 0.10 0.11
0.00 0.02 0.03 0.03 0.05 0.04 0.02 0.01 0.02 0.03 0.05 0.07 0.08 0.05 0.03 0.04 0.10 0.07 0.08 0.09 0.09 0.10 0.10 0.12 0.08 0.10 0.15 0.16 0.15 0.15 0.16 0.14 0.13 0.16 0.17 0.17 0.16 0.15 0.14 0.13 0.12 0.12 0.12 0.11
0.02 0.04 0.03 0.02 0.02 0.02 0.03 0.05 0.07 0.07 0.10 0.11 0.07 0.04 0.04 0.06 0.07 0.07 0.06 0.08 0.07 0.09 0.12 0.14 0.13 0.15 0.15 0.14 0.15 0.14 0.14 0.13 0.12 0.14 0.16 0.15 0.15 0.14 0.13 0.13 0.14 0.13 0.12 0.12
0.03 0.05 0.05 0.04 0.02 0.04 0.08 0.10 0.13 0.10 0.10 0.13 0.11 0.04 0.06 0.06 0.08 0.11 0.10 0.11 0.13 0.15 0.15 0.14 0.14 0.14 0.14 0.15 0.15 0.14 0.13 0.13 0.12 0.13 0.13 0.14 0.16 0.17 0.17 0.16 0.17 0.18 0.18 0.18

GFSNGP_prec_precacc_063.txt.gz
Total_Precipitation_Accumulation
0.00 0.00 0.00 0.00 0.00 0.00 0.00 0.00 0.00 0.00 0.00 0.00 0.00 0.00 0.00 0.00 0.00 0.00 0.00 0.00 0.01 0.01 0.02 0.04 0.03 0.03 0.04 0.04 0.04 0.03 0.02 0.01 0.01 0.01 0.01 0.03 0.05 0.05 0.08 0.07 0.04 0.03 0.03 0.02
0.00 0.00 0.00 0.00 0.00 0.00 0.00 0.00 0.00 0.00 0.00 0.00 0.00 0.00 0.00 0.00 0.00 0.00 0.00 0.00 0.02 0.03 0.03 0.03 0.03 0.03 0.03 0.04 0.05 0.03 0.01 0.00 0.03 0.07 0.15 0.21 0.19 0.11 0.04 0.03 0.06 0.06 0.04 0.04
0.01 0.00 0.01 0.01 0.00 0.00 0.00 0.00 0.00 0.00 0.00 0.00 0.00 0.00 0.00 0.00 0.00 0.00 0.01 0.00 0.02 0.02 0.02 0.01 0.02 0.04 0.04 0.04 0.02 0.01 0.01 0.03 0.07 0.11 0.14 0.08 0.02 0.02 0.07 0.09 0.06 0.03 0.01 0.00
0.01 0.02 0.07 0.00 0.00 0.00 0.00 0.00 0.00 0.00 0.00 0.00 0.00 0.00 0.00 0.00 0.00 0.02 0.02 0.03 0.02 0.00 0.00 0.00 0.02 0.02 0.01 0.01 0.02 0.02 0.01 0.02 0.02 0.01 0.00 0.01 0.05 0.08 0.08 0.06 0.03 0.01 0.00 0.01
0.02 0.03 0.02 0.00 0.00 0.00 0.00 0.00 0.00 0.00 0.02 0.02 0.02 0.02 0.01 0.01 0.03 0.06 0.05 0.04 0.00 0.00 0.00 0.00 0.00 0.01 0.03 0.03 0.03 0.03 0.02 0.00 0.00 0.01 0.03 0.05 0.06 0.09 0.06 0.01 0.00 0.00 0.00 0.01
0.03 0.05 0.04 0.00 0.00 0.00 0.00 0.01 0.01 0.04 0.09 0.14 0.11 0.19 0.12 0.07 0.08 0.06 0.03 0.00 0.00 0.00 0.00 0.00 0.01 0.01 0.01 0.01 0.00 0.00 0.00 0.01 0.02 0.03 0.07 0.10 0.07 0.01 0.00 0.00 0.00 0.00 0.00 0.01
0.01 0.04 0.01 0.00 0.00 0.01 0.14 0.17 0.06 0.12 0.17 0.11 0.16 0.19 0.19 0.18 0.05 0.00 0.00 0.00 0.00 0.00 0.00 0.00 0.00 0.01 0.01 0.00 0.00 0.00 0.01 0.02 0.02 0.03 0.04 0.03 0.01 0.00 0.00 0.00 0.03 0.03 0.03 0.01
0.07 0.16 0.06 0.00 0.03 0.15 0.18 0.08 0.08 0.07 0.06 0.08 0.10 0.19 0.18 0.05 0.02 0.00 0.00 0.00 0.00 0.00 0.00 0.00 0.01 0.00 0.00 0.00 0.00 0.00 0.00 0.01 0.04 0.04 0.02 0.01 0.00 0.00 0.00 0.02 0.03 0.03 0.03 0.03
0.04 0.03 0.00 0.00 0.03 0.02 0.04 0.10 0.07 0.07 0.09 0.16 0.26 0.16 0.04 0.03 0.00 0.00 0.00 0.00 0.00 0.00 0.01 0.01 0.00 0.00 0.00 0.00 0.00 0.01 0.02 0.04 0.04 0.01 0.01 0.00 0.00 0.00 0.00 0.01 0.01 0.03 0.05 0.05
0.02 0.01 0.00 0.01 0.01 0.02 0.06 0.08 0.13 0.20 0.24 0.21 0.10 0.06 0.03 0.00 0.00 0.00 0.00 0.01 0.02 0.03 0.02 0.00 0.00 0.00 0.01 0.01 0.02 0.03 0.03 0.02 0.02 0.01 0.00 0.01 0.01 0.01 0.01 0.01 0.02 0.03 0.03 0.07
0.05 0.01 0.02 0.04 0.07 0.14 0.21 0.31 0.29 0.19 0.14 0.07 0.03 0.01 0.01 0.01 0.00 0.00 0.02 0.04 0.03 0.04 0.04 0.00 0.00 0.00 0.01 0.02 0.02 0.02 0.01 0.01 0.01 0.00 0.03 0.02 0.00 0.00 0.00 0.01 0.02 0.04 0.06 0.14
0.10 0.06 0.23 0.22 0.33 0.42 0.38 0.27 0.15 0.09 0.04 0.01 0.01 0.01 0.00 0.00 0.01 0.02 0.03 0.03 0.04 0.03 0.01 0.00 0.00 0.00 0.01 0.01 0.01 0.01 0.02 0.03 0.03 0.02 0.02 0.01 0.00 0.00 0.00 0.00 0.00 0.01 0.04 0.13
0.16 0.13 0.22 0.32 0.34 0.22 0.20 0.13 0.04 0.01 0.00 0.00 0.00 0.00 0.01 0.01 0.02 0.03 0.03 0.03 0.01 0.00 0.00 0.00 0.00 0.01 0.02 0.00 0.01 0.01 0.03 0.05 0.02 0.01 0.02 0.01 0.01 0.02 0.02 0.01 0.00 0.01 0.04 0.04
0.05 0.10 0.20 0.20 0.19 0.14 0.06 0.01 0.00 0.00 0.00 0.02 0.04 0.02 0.01 0.01 0.03 0.03 0.02 0.00 0.00 0.00 0.00 0.00 0.02 0.02 0.01 0.02 0.01 0.01 0.01 0.02 0.02 0.02 0.02 0.02 0.02 0.04 0.05 0.06 0.07 0.04 0.04 0.03
0.01 0.03 0.09 0.04 0.01 0.01 0.00 0.00 0.00 0.01 0.04 0.02 0.00 0.00 0.01 0.02 0.02 0.00 0.00 0.00 0.00 0.00 0.01 0.02 0.02 0.01 0.02 0.01 0.00 0.00 0.01 0.01 0.01 0.03 0.03 0.04 0.04 0.05 0.06 0.08 0.11 0.10 0.07 0.07
0.00 0.00 0.00 0.00 0.00 0.01 0.01 0.03 0.05 0.04 0.00 0.00 0.00 0.01 0.01 0.01 0.00 0.00 0.00 0.00 0.01 0.01 0.01 0.02 0.03 0.04 0.02 0.01 0.00 0.00 0.01 0.00 0.01 0.04 0.04 0.05 0.06 0.09 0.14 0.16 0.18 0.19 0.17 0.17
0.01 0.02 0.04 0.05 0.07 0.07 0.06 0.03 0.00 0.00 0.00 0.00 0.00 0.00 0.00 0.00 0.00 0.00 0.00 0.00 0.01 0.00 0.01 0.04 0.05 0.03 0.00 0.00 0.01 0.01 0.02 0.02 0.03 0.05 0.07 0.10 0.14 0.16 0.17 0.20 0.20 0.18 0.21 0.20
0.01 0.02 0.06 0.11 0.06 0.01 0.00 0.00 0.00 0.00 0.00 0.00 0.00 0.00 0.00 0.01 0.01 0.01 0.00 0.01 0.02 0.02 0.03 0.05 0.03 0.01 0.00 0.00 0.01 0.03 0.05 0.06 0.08 0.11 0.11 0.13 0.15 0.15 0.15 0.18 0.19 0.19 0.18 0.15
0.08 0.08 0.05 0.01 0.00 0.00 0.00 0.00 0.00 0.00 0.00 0.00 0.00 0.00 0.01 0.01 0.01 0.01 0.02 0.05 0.06 0.08 0.05 0.02 0.01 0.01 0.01 0.01 0.03 0.07 0.09 0.13 0.13 0.12 0.13 0.14 0.13 0.18 0.26 0.26 0.23 0.23 0.20 0.17
0.02 0.02 0.02 0.00 0.00 0.00 0.00 0.00 0.00 0.00 0.00 0.00 0.00 0.01 0.02 0.01 0.01 0.03 0.07 0.07 0.08 0.06 0.01 0.00 0.01 0.01 0.02 0.03 0.04 0.08 0.11 0.14 0.12 0.14 0.19 0.23 0.30 0.27 0.21 0.19 0.19 0.20 0.20 0.22
0.04 0.01 0.00 0.00 0.00 0.00 0.00 0.00 0.00 0.00 0.00 0.00 0.02 0.02 0.03 0.02 0.04 0.08 0.11 0.07 0.04 0.01 0.00 0.01 0.02 0.02 0.04 0.07 0.08 0.12 0.18 0.22 0.27 0.31 0.26 0.24 0.21 0.18 0.18 0.17 0.19 0.20 0.19 0.19
0.00 0.00 0.00 0.00 0.00 0.00 0.00 0.00 0.00 0.00 0.00 0.00 0.02 0.03 0.06 0.06 0.08 0.09 0.05 0.03 0.02 0.02 0.03 0.04 0.05 0.07 0.10 0.13 0.15 0.19 0.21 0.24 0.22 0.19 0.19 0.18 0.19 0.18 0.16 0.15 0.15 0.14 0.15 0.15
0.00 0.00 0.00 0.00 0.00 0.01 0.01 0.01 0.02 0.01 0.01 0.02 0.05 0.06 0.08 0.08 0.08 0.06 0.05 0.01 0.02 0.03 0.07 0.10 0.11 0.11 0.12 0.16 0.20 0.21 0.21 0.18 0.16 0.15 0.16 0.17 0.18 0.18 0.16 0.14 0.13 0.14 0.13 0.13
0.01 0.00 0.01 0.01 0.03 0.04 0.04 0.02 0.01 0.01 0.02 0.04 0.07 0.08 0.08 0.06 0.04 0.02 0.04 0.05 0.07 0.09 0.12 0.13 0.09 0.09 0.14 0.19 0.17 0.17 0.18 0.15 0.13 0.14 0.15 0.16 0.16 0.16 0.16 0.14 0.12 0.10 0.11 0.11
0.00 0.02 0.03 0.03 0.05 0.04 0.02 0.01 0.02 0.03 0.05 0.07 0.08 0.05 0.03 0.04 0.10 0.07 0.08 0.09 0.09 0.10 0.11 0.12 0.08 0.10 0.15 0.16 0.16 0.15 0.17 0.14 0.13 0.16 0.18 0.17 0.16 0.15 0.14 0.13 0.13 0.12 0.12 0.11
0.02 0.04 0.03 0.02 0.02 0.02 0.03 0.05 0.07 0.07 0.10 0.11 0.07 0.04 0.05 0.06 0.07 0.07 0.06 0.08 0.07 0.09 0.12 0.14 0.13 0.15 0.15 0.14 0.15 0.14 0.14 0.13 0.12 0.14 0.16 0.15 0.15 0.14 0.13 0.14 0.14 0.13 0.12 0.12
0.03 0.05 0.06 0.05 0.03 0.04 0.08 0.10 0.13 0.10 0.10 0.13 0.11 0.04 0.06 0.07 0.09 0.11 0.10 0.11 0.13 0.15 0.15 0.14 0.14 0.14 0.14 0.15 0.15 0.14 0.13 0.13 0.12 0.13 0.13 0.14 0.16 0.17 0.17 0.16 0.17 0.18 0.18 0.18

GFSNGP_prec_precacc_069.txt.gz
Total_Precipitation_Accumulation
0.00 0.00 0.00 0.00 0.00 0.00 0.00 0.00 0.00 0.00 0.00 0.00 0.00 0.00 0.00 0.00 0.00 0.00 0.00 0.00 0.01 0.01 0.03 0.08 0.14 0.16 0.17 0.17 0.18 0.17 0.15 0.10 0.09 0.17 0.28 0.24 0.11 0.06 0.08 0.08 0.04 0.03 0.03 0.02
0.00 0.00 0.00 0.00 0.00 0.00 0.00 0.00 0.00 0.00 0.00 0.00 0.00 0.00 0.00 0.00 0.00 0.00 0.00 0.00 0.02 0.03 0.03 0.09 0.16 0.13 0.12 0.14 0.14 0.12 0.08 0.10 0.21 0.29 0.25 0.22 0.19 0.12 0.05 0.03 0.06 0.06 0.04 0.04
0.01 0.00 0.01 0.01 0.00 0.00 0.00 0.00 0.00 0.00 0.00 0.00 0.00 0.00 0.00 0.00 0.00 0.00 0.01 0.00 0.02 0.02 0.03 0.04 0.09 0.10 0.11 0.11 0.08 0.06 0.03 0.05 0.09 0.12 0.14 0.08 0.02 0.02 0.07 0.09 0.06 0.03 0.01 0.00
0.01 0.02 0.07 0.00 0.00 0.00 0.00 0.00 0.00 0.00 0.00 0.00 0.00 0.00 0.00 0.00 0.00 0.02 0.02 0.03 0.02 0.00 0.01 0.01 0.03 0.03 0.02 0.02 0.02 0.02 0.01 0.02 0.02 0.01 0.00 0.01 0.05 0.08 0.08 0.06 0.03 0.01 0.00 0.01
0.02 0.03 0.02 0.00 0.00 0.00 0.00 0.00 0.00 0.00 0.02 0.02 0.02 0.02 0.01 0.01 0.03 0.06 0.05 0.04 0.00 0.00 0.00 0.00 0.00 0.01 0.03 0.03 0.03 0.03 0.02 0.00 0.00 0.01 0.03 0.05 0.06 0.09 0.06 0.01 0.00 0.00 0.00 0.01
0.03 0.05 0.04 0.00 0.00 0.00 0.00 0.01 0.01 0.04 0.09 0.14 0.11 0.19 0.12 0.07 0.08 0.06 0.03 0.00 0.00 0.00 0.00 0.00 0.01 0.01 0.01 0.01 0.00 0.00 0.00 0.01 0.02 0.03 0.07 0.10 0.07 0.01 0.00 0.00 0.00 0.00 0.00 0.01
0.01 0.04 0.01 0.00 0.00 0.01 0.14 0.17 0.06 0.12 0.17 0.11 0.16 0.19 0.19 0.18 0.05 0.00 0.00 0.00 0.00 0.00 0.00 0.00 0.00 0.01 0.01 0.00 0.00 0.00 0.01 0.02 0.02 0.03 0.04 0.03 0.01 0.00 0.00 0.00 0.03 0.03 0.03 0.01
0.07 0.16 0.06 0.00 0.03 0.15 0.18 0.08 0.08 0.07 0.06 0.08 0.10 0.19 0.18 0.05 0.02 0.00 0.00 0.00 0.00 0.00 0.00 0.00 0.01 0.00 0.00 0.00 0.00 0.00 0.00 0.01 0.04 0.04 0.02 0.01 0.00 0.00 0.00 0.02 0.03 0.03 0.03 0.03
0.04 0.03 0.00 0.00 0.03 0.02 0.04 0.10 0.07 0.07 0.09 0.16 0.26 0.16 0.04 0.03 0.00 0.00 0.00 0.00 0.00 0.00 0.01 0.01 0.00 0.00 0.00 0.00 0.00 0.01 0.02 0.04 0.04 0.01 0.01 0.00 0.00 0.00 0.00 0.01 0.01 0.03 0.05 0.05
0.03 0.01 0.00 0.01 0.01 0.02 0.06 0.08 0.13 0.20 0.24 0.21 0.10 0.06 0.03 0.00 0.00 0.00 0.00 0.01 0.02 0.03 0.02 0.00 0.00 0.00 0.01 0.01 0.02 0.03 0.03 0.02 0.02 0.01 0.00 0.01 0.01 0.01 0.01 0.01 0.02 0.03 0.03 0.07
0.05 0.01 0.02 0.04 0.07 0.14 0.21 0.31 0.29 0.19 0.14 0.07 0.03 0.01 0.01 0.01 0.00 0.00 0.02 0.04 0.03 0.04 0.04 0.00 0.00 0.00 0.01 0.02 0.02 0.02 0.01 0.01 0.01 0.00 0.03 0.02 0.00 0.00 0.00 0.01 0.02 0.04 0.06 0.14
0.10 0.06 0.23 0.22 0.33 0.42 0.38 0.27 0.15 0.09 0.04 0.01 0.01 0.01 0.00 0.00 0.01 0.02 0.03 0.03 0.04 0.03 0.01 0.00 0.00 0.00 0.01 0.01 0.01 0.01 0.02 0.03 0.03 0.02 0.02 0.01 0.00 0.00 0.00 0.00 0.00 0.01 0.05 0.13
0.16 0.13 0.22 0.32 0.34 0.22 0.20 0.13 0.04 0.01 0.00 0.00 0.00 0.00 0.01 0.01 0.02 0.03 0.03 0.03 0.01 0.00 0.00 0.00 0.00 0.01 0.02 0.00 0.01 0.01 0.03 0.05 0.02 0.01 0.02 0.01 0.01 0.02 0.03 0.01 0.00 0.01 0.04 0.04
0.05 0.10 0.20 0.20 0.19 0.14 0.06 0.01 0.00 0.00 0.00 0.02 0.04 0.02 0.01 0.01 0.03 0.03 0.02 0.00 0.00 0.00 0.00 0.00 0.02 0.02 0.01 0.02 0.01 0.01 0.01 0.02 0.02 0.02 0.02 0.02 0.03 0.05 0.05 0.06 0.07 0.04 0.04 0.03
0.01 0.03 0.09 0.04 0.01 0.01 0.00 0.00 0.00 0.01 0.04 0.02 0.00 0.00 0.01 0.02 0.02 0.00 0.00 0.00 0.00 0.00 0.01 0.02 0.02 0.01 0.02 0.01 0.00 0.00 0.01 0.01 0.01 0.03 0.03 0.04 0.05 0.05 0.06 0.08 0.11 0.10 0.08 0.08
0.01 0.00 0.00 0.00 0.00 0.01 0.01 0.03 0.05 0.04 0.00 0.00 0.00 0.01 0.01 0.01 0.00 0.00 0.00 0.00 0.01 0.01 0.01 0.02 0.03 0.04 0.02 0.01 0.00 0.00 0.01 0.00 0.01 0.04 0.04 0.05 0.06 0.09 0.14 0.16 0.18 0.19 0.19 0.20
0.01 0.02 0.04 0.05 0.07 0.07 0.06 0.03 0.00 0.00 0.00 0.01 0.00 0.00 0.01 0.00 0.00 0.00 0.00 0.00 0.01 0.00 0.01 0.04 0.05 0.03 0.00 0.00 0.01 0.01 0.02 0.02 0.03 0.05 0.07 0.10 0.14 0.16 0.17 0.21 0.21 0.19 0.22 0.21
0.01 0.02 0.06 0.11 0.06 0.01 0.00 0.00 0.01 0.01 0.01 0.01 0.03 0.05 0.04 0.02 0.01 0.01 0.00 0.01 0.02 0.02 0.03 0.05 0.03 0.01 0.00 0.00 0.01 0.03 0.05 0.06 0.08 0.11 0.11 0.13 0.15 0.15 0.16 0.18 0.19 0.19 0.18 0.15
0.08 0.08 0.05 0.01 0.02 0.02 0.02 0.03 0.05 0.07 0.08 0.07 0.06 0.04 0.04 0.03 0.02 0.01 0.02 0.05 0.06 0.08 0.05 0.02 0.01 0.01 0.01 0.01 0.03 0.07 0.09 0.13 0.13 0.12 0.13 0.14 0.13 0.19 0.26 0.26 0.23 0.23 0.20 0.17
0.02 0.03 0.03 0.04 0.04 0.05 0.06 0.09 0.09 0.07 0.04 0.02 0.02 0.02 0.02 0.02 0.01 0.03 0.07 0.07 0.08 0.06 0.01 0.00 0.01 0.01 0.02 0.03 0.04 0.08 0.11 0.14 0.12 0.14 0.20 0.23 0.30 0.28 0.21 0.19 0.20 0.20 0.20 0.23
0.06 0.06 0.06 0.07 0.10 0.12 0.11 0.10 0.07 0.04 0.02 0.02 0.03 0.03 0.03 0.02 0.04 0.08 0.11 0.07 0.05 0.01 0.00 0.01 0.02 0.02 0.04 0.07 0.08 0.12 0.18 0.22 0.27 0.31 0.26 0.24 0.21 0.18 0.18 0.17 0.19 0.20 0.19 0.19
0.08 0.07 0.08 0.08 0.07 0.08 0.09 0.07 0.04 0.01 0.01 0.01 0.02 0.03 0.06 0.06 0.08 0.09 0.05 0.03 0.02 0.02 0.03 0.04 0.05 0.07 0.10 0.13 0.15 0.19 0.21 0.24 0.22 0.19 0.19 0.19 0.19 0.18 0.16 0.15 0.15 0.15 0.15 0.16
0.11 0.10 0.10 0.11 0.11 0.08 0.05 0.02 0.02 0.01 0.01 0.02 0.05 0.06 0.08 0.08 0.08 0.06 0.05 0.01 0.02 0.03 0.07 0.10 0.11 0.11 0.12 0.16 0.20 0.21 0.21 0.18 0.16 0.15 0.16 0.17 0.18 0.18 0.16 0.14 0.13 0.14 0.13 0.13
0.12 0.10 0.07 0.06 0.04 0.05 0.04 0.02 0.01 0.01 0.02 0.04 0.07 0.08 0.08 0.06 0.04 0.02 0.04 0.05 0.07 0.09 0.12 0.13 0.09 0.09 0.14 0.19 0.17 0.17 0.18 0.15 0.13 0.14 0.15 0.16 0.16 0.16 0.16 0.14 0.12 0.10 0.11 0.11
0.05 0.04 0.04 0.05 0.07 0.06 0.03 0.01 0.02 0.03 0.06 0.08 0.08 0.05 0.03 0.04 0.10 0.07 0.08 0.09 0.09 0.10 0.11 0.12 0.08 0.10 0.15 0.16 0.16 0.16 0.17 0.14 0.13 0.17 0.18 0.17 0.16 0.15 0.14 0.13 0.13 0.12 0.12 0.11
0.07 0.09 0.08 0.06 0.04 0.03 0.04 0.06 0.09 0.09 0.11 0.11 0.07 0.04 0.05 0.07 0.07 0.07 0.06 0.08 0.07 0.10 0.12 0.14 0.14 0.15 0.15 0.14 0.15 0.15 0.15 0.13 0.13 0.14 0.16 0.15 0.15 0.14 0.13 0.14 0.14 0.13 0.12 0.12
0.08 0.09 0.09 0.08 0.07 0.08 0.11 0.12 0.14 0.10 0.10 0.13 0.11 0.04 0.06 0.08 0.10 0.11 0.10 0.11 0.13 0.15 0.15 0.15 0.14 0.14 0.15 0.15 0.15 0.14 0.13 0.13 0.12 0.14 0.14 0.14 0.16 0.17 0.17 0.16 0.17 0.18 0.18 0.18

GFSNGP_prec_precacc_072.txt.gz
Total_Precipitation_Accumulation
0.00 0.00 0.00 0.00 0.00 0.00 0.00 0.00 0.00 0.00 0.00 0.00 0.00 0.00 0.00 0.00 0.00 0.00 0.00 0.00 0.01 0.01 0.03 0.08 0.14 0.16 0.18 0.22 0.22 0.21 0.20 0.15 0.11 0.18 0.30 0.32 0.34 0.28 0.17 0.10 0.06 0.04 0.03 0.02
0.00 0.00 0.00 0.00 0.00 0.00 0.00 0.00 0.00 0.00 0.00 0.00 0.00 0.00 0.00 0.00 0.00 0.00 0.00 0.00 0.02 0.03 0.03 0.09 0.16 0.14 0.12 0.18 0.18 0.13 0.09 0.10 0.21 0.30 0.29 0.30 0.26 0.15 0.06 0.03 0.06 0.06 0.04 0.04
0.01 0.00 0.01 0.01 0.00 0.00 0.00 0.00 0.00 0.00 0.00 0.00 0.00 0.00 0.00 0.00 0.00 0.00 0.01 0.00 0.02 0.02 0.03 0.04 0.10 0.14 0.16 0.14 0.10 0.07 0.04 0.05 0.09 0.12 0.15 0.08 0.02 0.02 0.07 0.09 0.06 0.03 0.01 0.00
0.01 0.02 0.07 0.00 0.00 0.00 0.00 0.00 0.00 0.00 0.00 0.00 0.00 0.00 0.00 0.00 0.00 0.02 0.02 0.03 0.02 0.00 0.01 0.01 0.03 0.04 0.05 0.04 0.04 0.03 0.02 0.02 0.02 0.01 0.00 0.01 0.05 0.08 0.08 0.06 0.03 0.01 0.00 0.01
0.02 0.03 0.02 0.00 0.00 0.00 0.00 0.00 0.00 0.00 0.02 0.02 0.02 0.02 0.01 0.01 0.03 0.06 0.05 0.04 0.00 0.00 0.00 0.00 0.00 0.01 0.03 0.03 0.03 0.03 0.02 0.00 0.00 0.01 0.03 0.05 0.07 0.09 0.06 0.01 0.00 0.00 0.00 0.01
0.03 0.05 0.04 0.00 0.00 0.00 0.00 0.01 0.01 0.04 0.09 0.14 0.11 0.19 0.12 0.07 0.08 0.06 0.03 0.00 0.00 0.00 0.00 0.00 0.01 0.01 0.01 0.01 0.00 0.00 0.00 0.01 0.02 0.03 0.07 0.10 0.07 0.01 0.00 0.00 0.00 0.00 0.00 0.01
0.01 0.04 0.01 0.00 0.00 0.01 0.14 0.17 0.06 0.12 0.17 0.11 0.16 0.19 0.19 0.18 0.05 0.00 0.00 0.00 0.00 0.00 0.00 0.00 0.00 0.01 0.01 0.00 0.00 0.00 0.01 0.02 0.02 0.03 0.04 0.03 0.01 0.00 0.00 0.00 0.03 0.03 0.03 0.01
0.07 0.16 0.06 0.00 0.03 0.15 0.18 0.08 0.08 0.07 0.06 0.08 0.10 0.19 0.18 0.05 0.02 0.00 0.00 0.00 0.00 0.00 0.00 0.00 0.01 0.00 0.00 0.00 0.00 0.00 0.00 0.01 0.04 0.04 0.02 0.01 0.00 0.00 0.00 0.02 0.03 0.03 0.03 0.03
0.04 0.03 0.00 0.00 0.03 0.02 0.04 0.10 0.07 0.07 0.09 0.16 0.26 0.16 0.04 0.03 0.00 0.00 0.00 0.00 0.00 0.00 0.01 0.01 0.00 0.00 0.00 0.00 0.00 0.01 0.02 0.04 0.04 0.01 0.01 0.00 0.00 0.00 0.00 0.01 0.01 0.03 0.05 0.05
0.03 0.01 0.00 0.01 0.01 0.02 0.06 0.08 0.13 0.20 0.24 0.21 0.10 0.06 0.03 0.00 0.00 0.00 0.00 0.01 0.02 0.03 0.02 0.00 0.00 0.00 0.01 0.01 0.02 0.03 0.03 0.02 0.02 0.01 0.00 0.01 0.01 0.01 0.01 0.01 0.02 0.03 0.03 0.07
0.05 0.01 0.03 0.04 0.08 0.14 0.21 0.31 0.29 0.19 0.14 0.07 0.03 0.01 0.01 0.01 0.00 0.00 0.02 0.04 0.03 0.04 0.04 0.00 0.00 0.00 0.01 0.02 0.02 0.02 0.01 0.01 0.01 0.00 0.03 0.02 0.00 0.00 0.00 0.01 0.02 0.04 0.06 0.14
0.10 0.07 0.23 0.22 0.33 0.42 0.38 0.27 0.15 0.09 0.04 0.01 0.01 0.01 0.00 0.00 0.01 0.02 0.03 0.03 0.04 0.03 0.01 0.00 0.00 0.00 0.01 0.01 0.01 0.01 0.02 0.03 0.03 0.02 0.02 0.01 0.00 0.00 0.00 0.00 0.00 0.01 0.05 0.13
0.17 0.14 0.22 0.32 0.34 0.22 0.20 0.13 0.04 0.01 0.00 0.00 0.00 0.00 0.01 0.01 0.02 0.03 0.03 0.03 0.01 0.00 0.00 0.00 0.00 0.01 0.02 0.00 0.01 0.01 0.03 0.05 0.02 0.01 0.02 0.01 0.01 0.02 0.03 0.01 0.00 0.01 0.04 0.04
0.06 0.10 0.20 0.20 0.19 0.14 0.06 0.01 0.00 0.00 0.00 0.02 0.04 0.02 0.01 0.01 0.03 0.03 0.02 0.00 0.00 0.00 0.00 0.00 0.02 0.02 0.01 0.02 0.01 0.01 0.01 0.02 0.02 0.02 0.02 0.02 0.03 0.05 0.05 0.06 0.07 0.04 0.04 0.03
0.01 0.03 0.09 0.04 0.01 0.01 0.00 0.00 0.00 0.01 0.04 0.02 0.00 0.00 0.01 0.02 0.02 0.00 0.00 0.00 0.00 0.00 0.01 0.02 0.02 0.01 0.02 0.01 0.00 0.00 0.01 0.01 0.01 0.03 0.03 0.04 0.05 0.05 0.06 0.08 0.11 0.10 0.08 0.08
0.01 0.00 0.00 0.00 0.00 0.01 0.01 0.03 0.05 0.04 0.00 0.00 0.00 0.01 0.01 0.01 0.00 0.00 0.00 0.01 0.03 0.03 0.01 0.02 0.03 0.04 0.02 0.01 0.00 0.00 0.01 0.00 0.01 0.04 0.04 0.05 0.06 0.09 0.14 0.16 0.18 0.19 0.19 0.20
0.01 0.02 0.04 0.05 0.07 0.07 0.06 0.03 0.00 0.00 0.01 0.02 0.02 0.03 0.03 0.05 0.06 0.10 0.13 0.10 0.05 0.02 0.02 0.04 0.05 0.03 0.00 0.00 0.01 0.01 0.02 0.02 0.03 0.05 0.07 0.10 0.14 0.16 0.17 0.21 0.21 0.19 0.22 0.21
0.01 0.02 0.06 0.11 0.06 0.01 0.00 0.01 0.02 0.03 0.04 0.05 0.09 0.12 0.13 0.15 0.16 0.16 0.08 0.04 0.04 0.03 0.04 0.05 0.03 0.01 0.00 0.00 0.01 0.03 0.05 0.06 0.08 0.11 0.11 0.13 0.15 0.15 0.16 0.18 0.19 0.19 0.18 0.15
0.08 0.08 0.05 0.01 0.02 0.02 0.02 0.04 0.06 0.09 0.14 0.17 0.18 0.20 0.20 0.16 0.08 0.03 0.03 0.06 0.07 0.08 0.05 0.02 0.01 0.01 0.01 0.01 0.03 0.07 0.09 0.13 0.13 0.12 0.13 0.14 0.13 0.19 0.26 0.26 0.23 0.23 0.20 0.17
0.02 0.03 0.03 0.04 0.04 0.05 0.07 0.11 0.14 0.16 0.15 0.13 0.12 0.10 0.06 0.04 0.03 0.05 0.09 0.08 0.08 0.06 0.01 0.00 0.01 0.01 0.02 0.03 0.04 0.08 0.11 0.14 0.12 0.14 0.20 0.23 0.30 0.28 0.21 0.19 0.20 0.20 0.21 0.23
0.06 0.06 0.06 0.07 0.10 0.13 0.15 0.16 0.13 0.12 0.12 0.08 0.06 0.06 0.07 0.05 0.05 0.09 0.12 0.07 0.05 0.01 0.00 0.01 0.02 0.02 0.04 0.07 0.08 0.12 0.18 0.22 0.27 0.31 0.26 0.24 0.21 0.18 0.19 0.17 0.19 0.20 0.20 0.19
0.09 0.09 0.10 0.10 0.10 0.14 0.17 0.15 0.08 0.04 0.03 0.04 0.06 0.06 0.08 0.07 0.08 0.09 0.05 0.03 0.02 0.02 0.03 0.04 0.05 0.07 0.10 0.13 0.15 0.19 0.21 0.24 0.22 0.19 0.19 0.19 0.19 0.18 0.16 0.15 0.15 0.15 0.15 0.16
0.17 0.15 0.14 0.16 0.15 0.12 0.07 0.03 0.03 0.04 0.04 0.04 0.06 0.07 0.08 0.08 0.08 0.06 0.05 0.01 0.02 0.03 0.07 0.10 0.11 0.11 0.12 0.16 0.21 0.21 0.21 0.18 0.16 0.16 0.16 0.17 0.18 0.18 0.17 0.14 0.13 0.14 0.13 0.13
0.15 0.12 0.09 0.07 0.05 0.05 0.04 0.02 0.02 0.01 0.02 0.04 0.07 0.08 0.08 0.06 0.04 0.02 0.04 0.05 0.07 0.09 0.12 0.14 0.09 0.09 0.14 0.19 0.17 0.17 0.18 0.15 0.13 0.15 0.15 0.16 0.17 0.16 0.16 0.14 0.13 0.10 0.11 0.11
0.06 0.06 0.06 0.07 0.08 0.08 0.04 0.02 0.03 0.04 0.07 0.09 0.08 0.05 0.03 0.04 0.10 0.07 0.08 0.09 0.09 0.10 0.11 0.12 0.08 0.10 0.15 0.16 0.16 0.16 0.17 0.15 0.13 0.17 0.18 0.17 0.16 0.16 0.14 0.13 0.13 0.12 0.12 0.11
0.08 0.10 0.10 0.07 0.05 0.04 0.05 0.07 0.10 0.10 0.11 0.12 0.07 0.04 0.05 0.07 0.08 0.07 0.07 0.08 0.07 0.10 0.12 0.14 0.14 0.15 0.15 0.15 0.15 0.15 0.15 0.14 0.13 0.15 0.16 0.15 0.15 0.14 0.13 0.14 0.14 0.13 0.12 0.12
0.09 0.10 0.10 0.09 0.07 0.08 0.11 0.13 0.14 0.11 0.10 0.13 0.11 0.05 0.07 0.08 0.10 0.12 0.11 0.11 0.13 0.15 0.15 0.15 0.15 0.14 0.15 0.16 0.16 0.15 0.14 0.14 0.12 0.14 0.14 0.14 0.16 0.17 0.17 0.17 0.17 0.18 0.18 0.18

GFSNGP_prec_precacc_075.txt.gz
Total_Precipitation_Accumulation
0.00 0.00 0.00 0.00 0.00 0.00 0.00 0.00 0.00 0.00 0.00 0.00 0.00 0.00 0.00 0.00 0.00 0.00 0.00 0.00 0.01 0.01 0.03 0.08 0.14 0.16 0.18 0.22 0.23 0.22 0.22 0.18 0.14 0.20 0.31 0.33 0.35 0.29 0.22 0.17 0.11 0.07 0.05 0.02
0.00 0.00 0.00 0.00 0.00 0.00 0.00 0.00 0.00 0.00 0.00 0.00 0.00 0.00 0.00 0.00 0.00 0.00 0.00 0.00 0.02 0.03 0.03 0.09 0.16 0.14 0.12 0.18 0.19 0.15 0.13 0.15 0.28 0.36 0.31 0.31 0.27 0.16 0.07 0.04 0.06 0.06 0.04 0.04
0.01 0.00 0.01 0.01 0.00 0.00 0.00 0.00 0.00 0.00 0.00 0.00 0.00 0.00 0.00 0.00 0.00 0.00 0.01 0.00 0.02 0.02 0.03 0.04 0.10 0.14 0.18 0.17 0.16 0.13 0.11 0.11 0.14 0.14 0.15 0.08 0.02 0.02 0.07 0.09 0.06 0.03 0.01 0.00
0.01 0.02 0.07 0.00 0.00 0.00 0.00 0.00 0.00 0.00 0.00 0.00 0.00 0.00 0.00 0.00 0.00 0.02 0.02 0.03 0.02 0.00 0.01 0.01 0.03 0.05 0.11 0.09 0.10 0.08 0.06 0.05 0.03 0.01 0.00 0.01 0.05 0.08 0.08 0.06 0.03 0.01 0.00 0.01
0.02 0.03 0.02 0.00 0.00 0.00 0.00 0.00 0.00 0.00 0.02 0.02 0.02 0.02 0.01 0.01 0.03 0.06 0.05 0.04 0.00 0.00 0.00 0.00 0.00 0.01 0.04 0.06 0.06 0.05 0.02 0.01 0.00 0.01 0.03 0.05 0.07 0.09 0.06 0.01 0.00 0.00 0.00 0.01
0.04 0.05 0.04 0.00 0.00 0.00 0.00 0.01 0.01 0.04 0.09 0.14 0.11 0.19 0.12 0.07 0.08 0.06 0.03 0.00 0.00 0.00 0.00 0.00 0.01 0.01 0.01 0.01 0.00 0.00 0.00 0.01 0.02 0.03 0.07 0.10 0.07 0.01 0.00 0.00 0.00 0.00 0.00 0.01
0.03 0.05 0.01 0.00 0.00 0.01 0.14 0.17 0.06 0.12 0.17 0.11 0.16 0.19 0.19 0.18 0.05 0.00 0.00 0.00 0.00 0.00 0.00 0.00 0.00 0.01 0.01 0.00 0.00 0.00 0.01 0.02 0.02 0.03 0.04 0.03 0.01 0.00 0.00 0.00 0.03 0.03 0.03 0.01
0.10 0.18 0.06 0.00 0.03 0.15 0.18 0.08 0.08 0.07 0.06 0.08 0.10 0.19 0.18 0.05 0.02 0.00 0.00 0.00 0.00 0.00 0.00 0.00 0.01 0.00 0.00 0.00 0.00 0.00 0.00 0.01 0.04 0.04 0.02 0.01 0.00 0.00 0.00 0.02 0.03 0.03 0.03 0.03
0.06 0.03 0.00 0.00 0.03 0.02 0.04 0.10 0.07 0.07 0.09 0.16 0.26 0.16 0.04 0.03 0.00 0.00 0.00 0.00 0.00 0.00 0.01 0.01 0.00 0.00 0.00 0.00 0.00 0.01 0.02 0.04 0.04 0.01 0.01 0.00 0.00 0.00 0.00 0.01 0.01 0.03 0.05 0.05
0.03 0.01 0.00 0.01 0.01 0.02 0.06 0.08 0.13 0.20 0.24 0.21 0.10 0.06 0.03 0.00 0.00 0.00 0.00 0.01 0.02 0.03 0.02 0.00 0.00 0.00 0.01 0.01 0.02 0.03 0.03 0.02 0.02 0.01 0.00 0.01 0.01 0.01 0.01 0.01 0.02 0.03 0.03 0.07
0.05 0.01 0.03 0.04 0.08 0.14 0.21 0.31 0.29 0.19 0.14 0.07 0.03 0.01 0.01 0.01 0.00 0.00 0.02 0.04 0.03 0.04 0.04 0.00 0.00 0.00 0.01 0.02 0.02 0.02 0.01 0.01 0.01 0.00 0.03 0.02 0.00 0.00 0.00 0.01 0.02 0.04 0.06 0.14
0.10 0.07 0.23 0.22 0.33 0.42 0.38 0.27 0.15 0.09 0.04 0.01 0.01 0.01 0.00 0.00 0.01 0.02 0.03 0.03 0.04 0.03 0.01 0.00 0.00 0.00 0.01 0.01 0.01 0.01 0.02 0.03 0.03 0.02 0.02 0.01 0.00 0.00 0.00 0.00 0.00 0.01 0.05 0.13
0.17 0.14 0.22 0.32 0.34 0.22 0.20 0.13 0.04 0.01 0.00 0.00 0.00 0.00 0.01 0.01 0.02 0.03 0.03 0.03 0.01 0.00 0.00 0.00 0.00 0.01 0.02 0.00 0.01 0.01 0.03 0.05 0.02 0.01 0.02 0.01 0.01 0.02 0.03 0.01 0.00 0.01 0.04 0.04
0.06 0.10 0.20 0.20 0.19 0.14 0.06 0.01 0.00 0.00 0.00 0.02 0.04 0.02 0.01 0.01 0.03 0.03 0.02 0.00 0.00 0.00 0.00 0.00 0.02 0.02 0.02 0.02 0.02 0.02 0.01 0.02 0.02 0.02 0.02 0.02 0.03 0.05 0.05 0.06 0.07 0.04 0.04 0.03
0.01 0.03 0.09 0.04 0.01 0.01 0.00 0.00 0.00 0.01 0.04 0.02 0.00 0.00 0.01 0.02 0.02 0.00 0.00 0.00 0.00 0.00 0.01 0.03 0.04 0.03 0.04 0.02 0.01 0.01 0.01 0.01 0.01 0.03 0.03 0.04 0.05 0.05 0.06 0.08 0.11 0.10 0.08 0.08
0.01 0.00 0.00 0.00 0.00 0.01 0.01 0.03 0.05 0.04 0.00 0.00 0.00 0.01 0.01 0.01 0.00 0.00 0.00 0.02 0.06 0.09 0.10 0.09 0.07 0.06 0.03 0.02 0.01 0.01 0.01 0.00 0.01 0.04 0.04 0.05 0.06 0.09 0.14 0.16 0.18 0.19 0.19 0.20
0.01 0.02 0.04 0.05 0.07 0.07 0.06 0.03 0.00 0.00 0.01 0.02 0.02 0.03 0.04 0.07 0.12 0.20 0.29 0.29 0.23 0.14 0.08 0.07 0.07 0.04 0.01 0.00 0.01 0.01 0.02 0.02 0.03 0.05 0.07 0.10 0.14 0.16 0.17 0.21 0.21 0.19 0.22 0.21
0.01 0.02 0.06 0.11 0.06 0.01 0.00 0.01 0.02 0.04 0.05 0.07 0.13 0.19 0.25 0.33 0.41 0.42 0.30 0.16 0.09 0.06 0.06 0.06 0.04 0.01 0.00 0.00 0.01 0.03 0.05 0.06 0.08 0.11 0.11 0.13 0.15 0.15 0.16 0.18 0.19 0.19 0.18 0.15
0.08 0.08 0.05 0.01 0.02 0.02 0.02 0.04 0.06 0.10 0.16 0.20 0.25 0.33 0.38 0.35 0.23 0.12 0.07 0.10 0.11 0.11 0.06 0.03 0.01 0.01 0.01 0.01 0.03 0.07 0.09 0.13 0.13 0.12 0.13 0.14 0.13 0.19 0.26 0.27 0.23 0.23 0.21 0.18
0.02 0.03 0.03 0.04 0.04 0.05 0.07 0.12 0.16 0.20 0.22 0.19 0.18 0.15 0.11 0.08 0.07 0.10 0.15 0.12 0.09 0.06 0.01 0.00 0.01 0.01 0.02 0.03 0.04 0.08 0.11 0.14 0.12 0.14 0.20 0.23 0.30 0.28 0.21 0.19 0.20 0.20 0.21 0.23
0.06 0.06 0.06 0.07 0.10 0.15 0.17 0.19 0.15 0.15 0.18 0.12 0.08 0.10 0.12 0.12 0.11 0.12 0.13 0.08 0.05 0.01 0.00 0.01 0.02 0.02 0.04 0.07 0.08 0.12 0.18 0.22 0.27 0.31 0.26 0.24 0.21 0.19 0.19 0.18 0.19 0.20 0.20 0.20
0.11 0.10 0.12 0.12 0.11 0.16 0.20 0.18 0.09 0.06 0.06 0.08 0.10 0.10 0.11 0.10 0.10 0.09 0.05 0.03 0.02 0.02 0.03 0.04 0.05 0.07 0.10 0.13 0.15 0.19 0.22 0.24 0.22 0.19 0.20 0.19 0.19 0.19 0.16 0.15 0.16 0.15 0.16 0.16
0.20 0.17 0.17 0.18 0.16 0.14 0.11 0.06 0.07 0.06 0.07 0.07 0.08 0.08 0.08 0.08 0.08 0.06 0.05 0.01 0.02 0.03 0.07 0.11 0.11 0.11 0.12 0.16 0.21 0.22 0.22 0.18 0.16 0.16 0.17 0.17 0.19 0.19 0.17 0.15 0.14 0.14 0.13 0.13
0.17 0.13 0.10 0.08 0.05 0.06 0.05 0.04 0.03 0.02 0.02 0.04 0.07 0.08 0.08 0.06 0.05 0.02 0.04 0.05 0.07 0.10 0.13 0.14 0.09 0.09 0.14 0.19 0.18 0.18 0.18 0.16 0.14 0.15 0.15 0.16 0.17 0.17 0.17 0.15 0.13 0.10 0.12 0.12
0.06 0.06 0.06 0.07 0.09 0.08 0.04 0.02 0.03 0.04 0.07 0.09 0.09 0.05 0.04 0.04 0.11 0.08 0.09 0.10 0.09 0.10 0.12 0.12 0.08 0.10 0.15 0.16 0.16 0.16 0.18 0.15 0.14 0.18 0.19 0.18 0.16 0.16 0.15 0.14 0.13 0.13 0.13 0.12
0.09 0.11 0.10 0.07 0.06 0.04 0.05 0.07 0.10 0.10 0.12 0.13 0.08 0.05 0.06 0.08 0.08 0.08 0.08 0.09 0.07 0.10 0.12 0.15 0.14 0.15 0.16 0.15 0.15 0.15 0.15 0.14 0.14 0.15 0.16 0.16 0.16 0.15 0.14 0.14 0.14 0.13 0.13 0.12
0.09 0.10 0.10 0.09 0.07 0.09 0.11 0.13 0.14 0.11 0.11 0.14 0.12 0.05 0.08 0.09 0.11 0.12 0.12 0.12 0.14 0.16 0.16 0.16 0.15 0.15 0.15 0.16 0.16 0.15 0.14 0.14 0.13 0.14 0.14 0.15 0.16 0.17 0.18 0.17 0.17 0.18 0.18 0.19

GFSNGP_prec_precacc_081.txt.gz
Total_Precipitation_Accumulation
0.00 0.00 0.00 0.00 0.00 0.00 0.00 0.00 0.00 0.00 0.00 0.00 0.00 0.00 0.00 0.00 0.00 0.00 0.00 0.00 0.01 0.01 0.03 0.08 0.14 0.16 0.18 0.25 0.28 0.36 0.36 0.39 0.35 0.49 0.69 0.54 0.50 0.38 0.26 0.21 0.15 0.11 0.08 0.04
0.00 0.00 0.00 0.00 0.00 0.00 0.00 0.00 0.00 0.00 0.00 0.00 0.00 0.00 0.00 0.00 0.00 0.00 0.00 0.00 0.02 0.03 0.03 0.09 0.16 0.14 0.14 0.23 0.27 0.27 0.26 0.26 0.43 0.56 0.44 0.46 0.36 0.20 0.09 0.04 0.07 0.07 0.04 0.04
0.02 0.00 0.01 0.01 0.00 0.00 0.00 0.00 0.00 0.00 0.00 0.00 0.00 0.00 0.00 0.00 0.00 0.00 0.01 0.00 0.02 0.02 0.03 0.04 0.10 0.17 0.19 0.20 0.20 0.17 0.16 0.19 0.26 0.25 0.22 0.14 0.05 0.04 0.08 0.10 0.07 0.04 0.01 0.01
0.03 0.02 0.08 0.00 0.00 0.00 0.00 0.00 0.00 0.00 0.00 0.00 0.00 0.00 0.00 0.00 0.00 0.02 0.02 0.03 0.02 0.00 0.01 0.01 0.05 0.07 0.12 0.10 0.12 0.11 0.10 0.10 0.08 0.05 0.03 0.03 0.07 0.11 0.10 0.07 0.03 0.01 0.00 0.01
0.07 0.06 0.02 0.00 0.00 0.00 0.00 0.00 0.00 0.00 0.02 0.02 0.02 0.02 0.01 0.01 0.03 0.06 0.05 0.04 0.00 0.00 0.00 0.00 0.00 0.01 0.04 0.07 0.07 0.06 0.03 0.02 0.01 0.01 0.03 0.06 0.08 0.10 0.06 0.01 0.00 0.00 0.00 0.01
0.13 0.08 0.05 0.00 0.00 0.00 0.00 0.01 0.01 0.04 0.09 0.14 0.11 0.19 0.12 0.07 0.08 0.06 0.03 0.00 0.00 0.00 0.00 0.00 0.01 0.01 0.01 0.01 0.00 0.00 0.00 0.01 0.02 0.03 0.07 0.10 0.08 0.01 0.00 0.00 0.00 0.00 0.00 0.01
0.07 0.14 0.02 0.00 0.00 0.01 0.14 0.17 0.06 0.12 0.17 0.11 0.16 0.19 0.19 0.18 0.05 0.00 0.00 0.00 0.00 0.00 0.00 0.00 0.00 0.01 0.01 0.00 0.00 0.00 0.01 0.02 0.02 0.03 0.04 0.03 0.01 0.00 0.00 0.00 0.03 0.03 0.03 0.01
0.13 0.22 0.08 0.00 0.03 0.15 0.18 0.08 0.08 0.07 0.06 0.08 0.10 0.19 0.18 0.05 0.02 0.00 0.00 0.00 0.00 0.00 0.00 0.00 0.01 0.00 0.00 0.00 0.00 0.00 0.00 0.01 0.04 0.04 0.02 0.01 0.00 0.00 0.00 0.02 0.03 0.03 0.03 0.03
0.07 0.04 0.00 0.00 0.03 0.02 0.04 0.10 0.07 0.07 0.09 0.16 0.26 0.16 0.04 0.03 0.00 0.00 0.00 0.00 0.00 0.00 0.01 0.01 0.00 0.00 0.00 0.00 0.00 0.01 0.02 0.04 0.04 0.01 0.01 0.00 0.00 0.00 0.00 0.01 0.01 0.03 0.05 0.05
0.04 0.01 0.02 0.04 0.05 0.02 0.06 0.09 0.13 0.20 0.24 0.21 0.10 0.06 0.03 0.00 0.00 0.00 0.00 0.01 0.02 0.03 0.02 0.00 0.00 0.00 0.01 0.01 0.02 0.03 0.03 0.02 0.02 0.01 0.00 0.01 0.01 0.01 0.01 0.01 0.02 0.03 0.03 0.07
0.06 0.01 0.03 0.04 0.08 0.15 0.21 0.32 0.29 0.19 0.14 0.07 0.03 0.01 0.01 0.01 0.00 0.00 0.02 0.04 0.03 0.04 0.04 0.00 0.00 0.00 0.01 0.02 0.02 0.02 0.01 0.01 0.01 0.00 0.03 0.02 0.00 0.00 0.00 0.01 0.02 0.04 0.06 0.14
0.10 0.07 0.23 0.22 0.33 0.42 0.38 0.27 0.15 0.09 0.04 0.01 0.01 0.01 0.00 0.00 0.01 0.02 0.03 0.03 0.04 0.03 0.01 0.00 0.00 0.00 0.01 0.01 0.01 0.01 0.02 0.03 0.03 0.02 0.02 0.02 0.01 0.01 0.00 0.00 0.00 0.02 0.05 0.13
0.17 0.14 0.22 0.32 0.34 0.22 0.20 0.14 0.05 0.01 0.00 0.00 0.00 0.00 0.01 0.01 0.02 0.03 0.03 0.03 0.01 0.00 0.00 0.00 0.00 0.01 0.02 0.00 0.01 0.01 0.03 0.06 0.03 0.03 0.04 0.03 0.02 0.02 0.03 0.01 0.01 0.01 0.04 0.04
0.06 0.10 0.20 0.20 0.19 0.14 0.06 0.01 0.00 0.00 0.00 0.02 0.04 0.02 0.01 0.01 0.03 0.03 0.02 0.00 0.00 0.00 0.00 0.00 0.02 0.02 0.02 0.02 0.02 0.03 0.04 0.06 0.06 0.05 0.04 0.04 0.05 0.06 0.06 0.07 0.07 0.04 0.04 0.03
0.01 0.03 0.09 0.04 0.01 0.01 0.00 0.00 0.00 0.01 0.04 0.02 0.00 0.00 0.01 0.02 0.02 0.00 0.00 0.00 0.00 0.00 0.01 0.03 0.05 0.04 0.07 0.10 0.13 0.15 0.13 0.11 0.08 0.08 0.07 0.07 0.06 0.06 0.06 0.08 0.11 0.10 0.08 0.08
0.01 0.00 0.00 0.00 0.00 0.01 0.01 0.03 0.05 0.04 0.00 0.00 0.00 0.01 0.01 0.01 0.00 0.00 0.00 0.02 0.06 0.11 0.17 0.22 0.26 0.28 0.23 0.22 0.17 0.13 0.10 0.07 0.05 0.05 0.05 0.05 0.07 0.10 0.14 0.16 0.18 0.19 0.19 0.20
0.01 0.02 0.04 0.05 0.07 0.07 0.06 0.03 0.00 0.00 0.01 0.02 0.02 0.03 0.04 0.07 0.12 0.20 0.32 0.40 0.42 0.41 0.38 0.34 0.30 0.21 0.11 0.07 0.06 0.06 0.05 0.03 0.03 0.05 0.07 0.10 0.14 0.16 0.17 0.21 0.21 0.19 0.22 0.21
0.01 0.02 0.06 0.11 0.06 0.01 0.00 0.01 0.02 0.04 0.06 0.08 0.13 0.19 0.28 0.40 0.55 0.66 0.61 0.47 0.33 0.25 0.23 0.18 0.11 0.04 0.01 0.01 0.02 0.03 0.05 0.06 0.08 0.11 0.11 0.13 0.15 0.15 0.16 0.18 0.19 0.19 0.18 0.15
0.08 0.09 0.05 0.01 0.02 0.02 0.03 0.04 0.07 0.11 0.18 0.23 0.28 0.40 0.50 0.53 0.43 0.29 0.21 0.20 0.21 0.19 0.12 0.04 0.01 0.01 0.01 0.01 0.03 0.07 0.09 0.13 0.13 0.12 0.13 0.14 0.13 0.19 0.27 0.27 0.23 0.23 0.21 0.18
0.02 0.03 0.03 0.04 0.04 0.06 0.09 0.16 0.21 0.28 0.36 0.33 0.33 0.28 0.21 0.17 0.14 0.16 0.19 0.16 0.11 0.08 0.01 0.00 0.01 0.01 0.02 0.03 0.04 0.08 0.11 0.14 0.12 0.14 0.20 0.23 0.30 0.28 0.21 0.20 0.20 0.21 0.21 0.24
0.06 0.06 0.06 0.08 0.12 0.19 0.27 0.32 0.29 0.33 0.37 0.25 0.16 0.17 0.17 0.17 0.15 0.16 0.15 0.09 0.06 0.01 0.00 0.01 0.02 0.02 0.04 0.07 0.08 0.12 0.18 0.22 0.27 0.31 0.26 0.24 0.21 0.19 0.19 0.18 0.20 0.20 0.21 0.20
0.16 0.17 0.23 0.24 0.23 0.32 0.36 0.32 0.18 0.14 0.12 0.13 0.13 0.12 0.13 0.12 0.12 0.11 0.06 0.03 0.02 0.02 0.03 0.04 0.05 0.07 0.10 0.13 0.16 0.19 0.22 0.24 0.22 0.19 0.20 0.20 0.20 0.19 0.17 0.16 0.16 0.16 0.16 0.16
0.39 0.35 0.34 0.32 0.27 0.26 0.22 0.15 0.13 0.09 0.10 0.09 0.10 0.10 0.09 0.09 0.09 0.06 0.06 0.02 0.02 0.04 0.07 0.11 0.11 0.11 0.12 0.17 0.22 0.22 0.22 0.19 0.16 0.16 0.18 0.19 0.19 0.20 0.18 0.16 0.15 0.15 0.14 0.14
0.34 0.28 0.24 0.19 0.12 0.08 0.09 0.07 0.04 0.03 0.03 0.05 0.08 0.09 0.09 0.07 0.05 0.03 0.04 0.05 0.07 0.10 0.13 0.14 0.09 0.09 0.14 0.20 0.19 0.18 0.19 0.16 0.15 0.16 0.16 0.17 0.18 0.18 0.17 0.16 0.14 0.12 0.13 0.12
0.13 0.12 0.09 0.08 0.09 0.08 0.05 0.02 0.03 0.04 0.07 0.09 0.09 0.05 0.04 0.05 0.13 0.10 0.10 0.10 0.09 0.13 0.15 0.13 0.09 0.10 0.16 0.17 0.17 0.17 0.18 0.16 0.15 0.19 0.20 0.19 0.17 0.17 0.16 0.15 0.14 0.14 0.13 0.12
0.10 0.12 0.12 0.08 0.06 0.05 0.06 0.07 0.11 0.11 0.12 0.13 0.09 0.06 0.07 0.09 0.09 0.09 0.08 0.09 0.08 0.10 0.13 0.16 0.15 0.16 0.16 0.16 0.16 0.16 0.16 0.15 0.15 0.16 0.17 0.16 0.16 0.16 0.15 0.15 0.15 0.14 0.13 0.13
0.09 0.10 0.10 0.09 0.08 0.09 0.12 0.13 0.15 0.12 0.12 0.14 0.13 0.06 0.09 0.10 0.12 0.13 0.13 0.13 0.15 0.17 0.16 0.16 0.16 0.16 0.16 0.16 0.17 0.16 0.15 0.15 0.14 0.15 0.15 0.15 0.17 0.18 0.19 0.18 0.18 0.18 0.18 0.19